                ,  0.201,  0.301,  0.401,  0.501,  0.601,  0.701,  0.801,  0.901,  1.001,  1.101,  1.201,  1.301,  1.401,  1.501,  1.601,  1.701,  1.801,  1.901,  2.001,  2.101,  2.201,  2.301,  2.401,  2.501,  2.601,  2.701,  2.801,  2.901,  3.001,  3.101,  3.201,  3.301,  3.401,  3.501,  3.601,  3.701,  3.801,  3.901,  4.001,  4.101,  4.201,  4.301,  4.401,  4.501,  4.601,  4.701,  4.801,  4.901,  5.001,  5.101,  5.201,  5.301,  5.401,  5.501,  5.601,  5.701,  5.801,  5.901,  6.001,  6.101,  6.201,  6.301,  6.401,  6.501,  6.601,  6.701,  6.801,  6.901,  7.001,  7.101,  7.201,  7.301,  7.401,  7.501,  7.601,  7.701,  7.801,  7.901,  8.001,  8.101,  8.201,  8.301,  8.401,  8.501,  8.601,  8.701,  8.801,  8.901,  9.001,  9.101,  9.201,  9.301,  9.401,  9.501,  9.601,  9.701,  9.801,  9.901
2011/04/17 00:00,    0.1,    0.1,   -0.2,   -0.1,   -0.1,   -0.2,   -0.2,   -0.1,   -0.1,    0.1,    0.1,    0.1,   -0.3,   -0.0,    0.1,    0.1,    0.1,   -0.0,   -0.0,    0.1,    0.0,   -0.0,   -0.0,    0.1,    0.1,    0.0,    0.1,   -0.0,   -0.0,    0.1,    0.0,  999.0,  999.0,  999.0,  999.0,  999.0,  999.0,  999.0,  999.0,  999.0,  999.0,   -2.4,   -2.2,  999.0,  999.0,   -1.1,   -0.9,   -0.9,   -0.7,   -0.7,   -0.8,   -0.8,   -0.9,   -1.0,   -1.0,   -1.1,   -1.1,   -1.1,   -1.2,   -1.2,   -1.2,   -1.2,   -1.2,   -1.1,   -1.1,   -0.9,   -0.9,   -0.8,   -0.9,   -0.9,   -0.9,   -0.9,   -0.9,   -0.8,   -0.8,   -0.9,   -0.9,   -0.9,   -1.0,   -0.9,   -0.8,   -0.7,   -0.7,   -0.8,   -0.7,   -0.6,   -0.4,    0.1,   -1.2,   -0.4,  999.0,  999.0,   -0.8,   -0.8,   -0.7,   -0.8,   -0.8,  999.0
2011/04/17 00:10,   -0.0,   -0.0,    0.0,   -0.0,    0.0,    0.1,    0.1,    0.1,    0.1,    0.1,   -0.0,    0.1,  999.0,    0.0,    0.1,    0.1,    0.2,    0.2,    0.0,    0.1,    0.1,    0.1,  999.0,    0.0,  999.0,  999.0,   -0.1,    0.1,    0.2,    0.2,    0.2,    0.2,    0.2,    0.1,  999.0,  999.0,  999.0,   -2.5,   -2.5,   -2.4,   -2.4,   -2.3,   -2.4,   -1.8,   -1.2,   -1.1,   -1.1,   -1.0,   -1.0,   -1.0,   -1.0,   -1.0,   -1.1,   -1.1,   -1.2,   -1.2,   -1.3,   -1.2,   -1.2,   -1.2,   -1.3,   -1.3,   -1.2,   -1.1,   -1.0,   -1.0,   -0.9,   -0.9,   -1.0,   -1.0,   -1.0,   -1.0,   -1.0,   -0.9,   -0.9,   -0.8,   -0.8,   -0.8,   -0.8,   -0.8,   -0.8,   -0.8,   -0.8,   -0.9,   -0.8,   -0.6,   -0.7,   -0.6,   -0.8,   -0.8,   -0.8,   -0.6,   -0.7,   -0.7,   -0.7,   -0.7,   -0.6,  999.0
2011/04/17 00:20,   -0.2,   -0.2,   -0.0,    0.1,  999.0,   -0.1,    0.0,    0.0,    0.1,    0.0,    0.1,    0.0,    0.0,    0.1,    0.1,    0.0,    0.1,    0.1,    0.2,  999.0,  999.0,    0.0,  999.0,  999.0,    0.0,   -0.0,    0.2,    0.2,   -0.2,   -0.1,  999.0,  999.0,  999.0,  999.0,   -2.7,   -2.6,   -2.7,   -2.6,   -2.7,   -2.7,   -2.6,   -2.5,   -2.6,   -2.4,   -1.7,   -1.2,   -1.0,   -0.9,   -0.9,   -0.8,   -0.7,   -0.7,   -0.7,   -0.7,   -0.8,   -0.9,   -0.9,   -1.0,   -1.0,   -1.0,   -1.0,   -1.1,   -1.2,   -1.2,   -1.2,   -1.1,   -1.1,   -1.0,   -1.1,   -1.1,   -1.1,   -1.0,   -1.0,   -1.0,   -0.9,   -0.9,   -0.9,   -0.8,   -0.9,   -0.9,   -0.9,   -0.9,   -0.9,   -0.9,   -1.0,   -0.9,   -0.8,   -0.7,   -0.8,   -0.8,   -0.8,   -0.8,   -0.8,   -0.7,   -0.8,   -0.8,   -0.8,   -0.5
2011/04/17 00:30,   -0.1,    0.1,  999.0,  999.0,   -0.0,   -0.1,   -0.0,   -0.1,    0.1,    0.0,    0.0,   -0.0,   -0.0,   -0.0,    0.0,    0.0,   -0.1,   -0.0,  999.0,  999.0,  999.0,  999.0,   -0.2,    0.1,  999.0,   -0.2,   -0.2,   -0.2,   -0.1,    0.0,  999.0,  999.0,  999.0,  999.0,   -0.9,   -0.9,   -2.1,   -1.2,   -1.4,   -1.7,   -2.2,   -2.1,   -2.0,   -1.9,   -1.4,   -0.9,   -0.8,   -0.8,   -0.9,   -0.8,   -0.7,   -0.6,   -0.6,   -0.9,   -0.7,   -0.7,   -0.8,   -0.9,   -0.9,   -0.8,   -0.9,   -0.9,   -0.9,   -0.9,   -0.9,   -0.9,   -0.8,   -0.8,   -0.7,   -0.7,   -0.7,   -0.7,   -0.7,   -0.6,   -0.6,   -0.7,   -0.6,   -0.7,   -0.8,   -0.8,   -0.8,   -0.8,   -0.9,   -0.8,   -0.8,   -0.7,   -0.6,   -0.6,   -0.6,   -0.6,   -0.7,   -0.6,   -0.6,   -0.6,   -0.6,   -0.7,   -0.5,  999.0
2011/04/17 00:40,   -0.0,    0.1,  999.0,    0.2,    0.0,    0.0,   -0.0,    0.0,   -0.0,   -0.0,   -0.0,   -0.1,   -0.0,   -0.0,    0.0,   -0.0,    0.0,   -0.0,  999.0,  999.0,  999.0,  999.0,   -0.2,   -0.1,   -0.1,   -0.0,   -0.1,    0.0,   -0.2,   -0.3,  999.0,  999.0,  999.0,    0.1,   -0.0,  999.0,  999.0,   -0.1,   -0.2,   -0.1,   -0.0,  999.0,  999.0,  999.0,   -1.3,   -1.0,   -0.9,   -1.0,   -1.0,   -1.0,   -0.8,   -0.7,   -0.6,   -0.7,  999.0,   -0.6,   -0.7,   -0.7,   -0.6,   -0.7,   -0.7,   -0.8,   -0.9,   -1.0,   -1.0,   -0.9,   -0.9,   -0.8,   -0.8,   -0.8,   -0.8,   -0.8,   -0.8,   -0.8,   -0.8,   -0.8,   -0.8,   -0.9,   -1.0,   -1.0,   -1.0,   -1.0,   -1.0,   -0.9,   -0.9,   -0.8,   -0.8,   -0.8,   -0.7,   -0.8,   -0.7,   -0.7,   -0.7,   -0.7,   -0.6,   -0.6,   -0.7,   -0.8
2011/04/17 00:50,    0.1,    0.2,   -0.0,    0.3,    0.1,    0.0,   -0.1,    0.0,   -0.0,   -0.1,   -0.1,   -0.1,   -0.2,   -0.2,   -0.1,   -0.1,   -0.1,    0.0,    0.2,  999.0,    0.1,   -0.0,    0.1,   -0.1,    0.0,    0.0,    0.3,    0.2,    0.2,    0.1,  999.0,  999.0,    0.3,  999.0,  999.0,  999.0,  999.0,    0.1,    0.1,    0.1,   -0.1,   -0.1,  999.0,  999.0,   -1.3,   -0.9,   -1.0,   -1.2,   -1.3,   -1.3,   -1.1,   -1.0,   -0.9,   -0.8,   -0.6,   -0.6,   -0.7,   -0.8,   -0.9,   -0.8,   -0.8,   -0.8,   -0.9,   -0.9,   -0.9,   -0.9,   -0.9,   -0.9,   -0.9,   -0.9,   -0.9,   -0.9,   -0.9,   -0.8,   -0.8,   -0.8,   -0.8,   -0.8,   -0.8,   -0.8,   -0.9,   -0.8,   -0.8,   -0.7,   -0.6,   -0.6,   -0.6,   -0.6,   -0.6,   -0.5,   -0.5,   -0.6,   -0.6,   -0.5,   -0.5,   -0.5,   -0.5,   -0.4
2011/04/17 01:00,   -0.1,    0.1,    0.2,   -0.0,   -0.0,   -0.1,   -0.1,   -0.1,   -0.1,    0.0,    0.4,   -0.1,   -0.1,   -0.1,   -0.2,   -0.0,   -0.0,    0.0,   -0.0,   -0.0,   -0.0,   -0.1,   -0.0,   -0.1,   -0.2,  999.0,   -0.2,   -0.1,   -0.1,    0.0,  999.0,  999.0,  999.0,  999.0,  999.0,  999.0,  999.0,   -2.2,   -2.1,   -2.1,   -2.0,   -2.0,   -2.0,   -1.9,   -1.2,   -0.9,   -1.0,   -1.0,   -0.9,   -0.8,   -0.8,   -0.8,   -0.8,   -0.8,   -0.5,   -0.3,  999.0,   -0.6,   -0.7,   -0.7,   -0.7,   -0.9,   -0.9,   -1.0,   -1.0,   -1.0,   -1.0,   -1.0,   -0.9,   -0.9,   -0.9,   -0.9,   -0.9,   -0.9,   -0.8,   -0.8,   -0.8,   -0.8,   -0.8,   -0.8,   -0.8,   -0.8,   -0.8,   -0.7,   -0.7,   -0.7,   -0.6,   -0.6,   -0.6,   -0.5,   -0.5,   -0.5,   -0.5,   -0.6,   -0.6,   -0.6,   -0.5,   -0.4
2011/04/17 01:10,   -0.0,    0.0,    0.2,    0.0,   -0.1,    0.0,    0.0,   -0.1,    0.2,   -0.1,    0.1,    0.0,    0.1,    0.1,   -0.0,   -0.1,   -0.1,    0.0,    0.1,   -0.1,  999.0,   -0.2,  999.0,  999.0,  999.0,  999.0,   -0.1,    0.1,    0.1,    0.1,  999.0,  999.0,  999.0,  999.0,  999.0,  999.0,   -2.0,   -2.0,   -1.9,   -1.9,   -1.9,   -1.9,   -1.9,   -1.7,   -1.4,   -1.0,   -0.9,   -0.9,   -0.9,   -0.7,   -0.7,   -0.7,   -0.7,   -0.8,  999.0,  999.0,  999.0,  999.0,   -0.9,   -0.9,   -0.9,   -1.0,   -1.0,   -1.0,   -1.0,   -1.0,   -1.0,   -0.9,   -0.9,   -0.9,   -0.9,   -0.9,   -0.9,   -0.9,   -0.9,   -0.8,   -0.8,   -0.9,   -0.9,   -0.9,   -0.8,   -0.8,   -0.8,   -0.7,   -0.7,   -0.7,   -0.6,   -0.6,   -0.6,   -0.6,   -0.6,   -0.6,   -0.6,   -0.6,   -0.6,   -0.6,  999.0,   -0.5
2011/04/17 01:20,    0.0,    0.1,   -0.1,   -0.0,   -0.1,   -0.1,   -0.1,   -0.1,   -0.0,   -0.0,   -0.1,   -0.1,   -0.0,   -0.0,    0.0,    0.0,    0.0,    0.0,   -0.0,    0.0,    0.0,    0.1,    0.1,    0.2,    0.2,  999.0,   -0.2,  999.0,    0.1,  999.0,  999.0,  999.0,  999.0,  999.0,  999.0,  999.0,  999.0,  999.0,    0.0,   -0.0,   -0.0,   -0.0,   -0.1,   -0.2,   -0.3,   -0.3,   -0.6,   -0.6,   -0.5,  999.0,  999.0,  999.0,  999.0,   -0.5,   -0.7,   -0.7,   -0.7,   -0.8,   -0.8,   -0.8,   -0.9,   -0.9,   -0.9,   -0.9,   -0.9,   -1.0,   -1.0,   -0.9,   -1.0,   -1.0,   -0.9,   -0.9,   -1.0,   -1.0,   -0.9,   -0.9,   -0.9,   -0.9,   -0.9,   -0.9,   -0.9,   -0.8,   -0.8,   -0.7,   -0.6,   -0.7,   -0.7,   -0.7,   -0.7,   -0.7,   -0.6,   -0.7,   -0.6,   -0.6,   -0.6,  999.0,  999.0,  999.0
2011/04/17 01:30,    0.0,    0.0,    0.0,   -0.1,   -0.1,   -0.2,   -0.1,   -0.1,   -0.1,   -0.1,   -0.0,   -0.1,   -0.0,    0.0,    0.0,    0.0,   -0.0,    0.0,    0.0,    0.1,    0.1,    0.2,  999.0,    0.0,    0.1,    0.1,    0.2,    0.2,    0.2,    0.1,    0.1,    0.1,  999.0,  999.0,  999.0,  999.0,    0.4,  999.0,    0.1,    0.1,    0.2,    0.2,    0.0,    0.1,   -0.0,   -0.1,   -0.1,  999.0,  999.0,   -0.9,   -0.9,   -0.9,   -0.9,   -0.8,   -0.8,   -0.8,   -0.9,   -0.9,   -0.8,   -0.8,   -0.9,   -0.9,   -0.9,   -0.9,   -1.0,   -1.0,   -1.0,   -1.0,   -1.0,   -1.1,   -1.0,   -1.0,   -1.0,   -1.0,   -1.0,   -0.9,   -0.9,   -1.0,   -1.0,   -1.0,   -0.9,   -1.0,   -0.9,   -0.9,   -0.9,   -0.9,   -0.9,   -0.8,   -0.8,   -0.7,   -0.7,   -0.7,   -0.7,   -0.7,  999.0,   -0.7,   -0.7,  999.0
2011/04/17 01:40,   -0.0,   -0.0,   -0.0,    0.1,    0.0,   -0.0,   -0.1,    0.1,   -0.1,    0.1,    0.1,    0.1,    0.2,    0.1,    0.2,    0.1,    0.1,    0.1,    0.0,    0.2,    0.0,    0.1,  999.0,  999.0,    0.3,    0.0,    0.1,    0.1,    0.0,    0.1,    0.0,   -0.2,  999.0,  999.0,  999.0,  999.0,  999.0,  999.0,  999.0,    0.0,   -0.0,   -0.0,    0.0,    0.1,   -0.0,   -0.1,   -0.1,   -0.8,   -0.8,   -0.8,   -0.8,   -0.8,   -0.8,   -0.9,   -0.9,   -1.0,   -1.1,   -1.1,   -1.1,   -1.1,   -1.1,   -1.1,   -1.1,   -1.1,   -1.1,   -1.1,   -1.1,   -1.0,   -1.0,   -0.9,   -0.9,   -0.9,   -0.9,   -0.8,   -0.9,   -0.9,   -0.8,   -0.9,   -0.9,   -0.9,   -0.9,   -0.8,   -0.8,   -0.8,   -0.7,   -0.7,   -0.7,   -0.6,   -0.6,   -0.7,   -0.6,   -0.6,   -0.5,   -0.4,   -0.5,   -0.6,  999.0,  999.0
2011/04/17 01:50,    0.1,    0.1,    0.1,    0.1,    0.1,    0.1,    0.0,    0.0,   -0.0,   -0.0,    0.0,   -0.1,   -0.0,   -0.0,   -0.1,   -0.0,   -0.1,    0.0,    0.0,   -0.1,   -0.1,   -0.0,   -0.1,  999.0,    0.1,  999.0,  999.0,  999.0,    0.0,   -0.1,   -0.1,   -0.1,  999.0,    0.2,    0.1,  999.0,  999.0,  999.0,  999.0,   -0.0,    0.0,    0.0,    0.1,    0.2,    0.2,    0.1,   -0.2,   -0.9,   -1.0,   -1.1,   -1.1,   -1.1,   -1.1,   -1.1,   -1.1,   -1.1,   -1.1,   -1.1,   -1.1,   -1.1,   -1.2,   -1.2,   -1.2,   -1.2,   -1.2,   -1.2,   -1.1,   -1.0,   -1.0,   -1.0,   -0.9,   -0.9,   -0.9,   -0.9,   -0.9,   -1.0,   -0.9,   -0.9,   -1.0,   -1.0,   -1.0,   -0.9,   -0.9,   -0.8,   -0.8,   -0.7,   -0.7,   -0.8,   -0.8,   -0.7,   -0.7,   -0.6,   -0.6,   -0.5,  999.0,  999.0,  999.0,   -0.5
2011/04/17 02:00,   -0.0,   -0.1,    0.0,    0.1,    0.1,    0.1,   -0.1,   -0.0,   -0.0,   -0.0,   -0.0,   -0.0,   -0.1,   -0.1,  999.0,  999.0,   -0.3,   -0.1,   -0.1,   -0.3,  999.0,  999.0,  999.0,  999.0,  999.0,  999.0,    0.3,  999.0,    0.2,    0.3,    0.1,    0.3,  999.0,  999.0,   -0.3,  999.0,  999.0,  999.0,  999.0,   -0.1,   -0.1,   -0.0,    0.0,    0.1,   -0.2,   -0.4,   -1.2,   -1.4,   -1.4,   -1.4,   -1.3,   -1.2,   -1.1,   -1.1,   -1.0,   -1.0,   -1.0,   -0.9,   -1.0,   -1.0,   -1.0,   -1.1,   -1.1,   -1.0,   -1.0,   -1.0,   -1.1,   -1.0,   -1.0,   -1.0,   -1.0,   -1.0,   -1.0,   -1.0,   -1.0,   -1.0,   -1.0,   -1.0,   -1.0,   -1.0,   -0.9,   -0.9,   -0.9,   -1.0,   -0.9,   -0.9,   -0.9,   -0.8,   -0.8,   -0.8,   -0.6,   -0.7,   -0.6,   -0.6,   -0.6,   -0.6,   -0.6,   -0.6
2011/04/17 02:10,   -0.0,   -0.0,   -0.0,   -0.2,   -0.1,   -0.1,   -0.1,    0.1,   -0.0,    0.0,   -0.0,    0.0,   -0.0,   -0.0,   -0.0,   -0.1,  999.0,   -0.0,  999.0,   -0.1,   -0.1,    0.1,   -0.0,  999.0,  999.0,    0.7,  999.0,   -0.2,   -0.4,   -0.0,   -0.1,    0.1,    0.0,  999.0,   -0.1,    0.1,  999.0,  999.0,  999.0,  999.0,    0.1,  999.0,  999.0,   -0.1,  999.0,   -0.9,   -1.0,   -1.1,   -1.2,   -1.1,   -1.1,   -1.1,   -1.0,   -1.0,   -1.0,   -1.0,   -0.9,   -0.8,   -0.8,   -0.9,   -0.9,   -0.9,   -0.9,   -0.9,   -1.0,   -1.0,   -1.1,   -1.0,   -1.0,   -1.0,   -0.9,   -0.9,   -0.9,   -0.9,   -0.9,   -0.9,   -0.9,   -0.9,   -0.9,   -0.9,   -1.0,   -0.9,   -0.9,   -0.9,   -0.8,   -0.8,   -0.7,   -0.7,   -0.7,   -0.6,   -0.6,   -0.6,   -0.6,   -0.6,   -0.5,   -0.5,   -0.5,   -0.5
2011/04/17 02:20,   -0.0,    0.0,    0.0,    0.1,   -0.0,   -0.0,   -0.1,   -0.0,    0.1,   -0.0,   -0.1,   -0.2,   -0.1,   -0.1,   -0.2,   -0.1,   -0.1,  999.0,   -0.3,   -0.2,   -0.2,   -0.1,   -0.2,  999.0,   -0.0,    0.1,  999.0,   -0.1,    0.2,   -0.1,    0.1,    0.0,   -0.0,   -0.1,  999.0,   -0.1,  999.0,  999.0,  999.0,  999.0,  999.0,  999.0,  999.0,    0.2,  999.0,   -0.5,   -0.5,   -0.7,   -0.9,   -0.9,   -0.8,   -0.8,   -0.6,   -0.7,   -0.7,   -0.7,   -0.7,   -0.6,   -0.7,   -0.8,   -0.8,   -0.9,   -0.9,   -1.0,   -1.0,   -1.0,   -1.0,   -1.0,   -1.0,   -1.0,   -1.0,   -1.0,   -1.0,   -1.0,   -1.0,   -1.0,   -1.0,   -1.0,   -1.0,   -1.0,   -1.0,   -1.0,   -1.0,   -1.0,   -1.0,   -1.0,   -1.0,   -0.9,   -0.9,   -0.8,   -0.8,   -0.8,   -0.8,   -0.8,   -0.8,   -0.8,   -0.7,   -0.7
2011/04/17 02:30,    0.0,    0.0,   -0.0,   -0.1,   -0.0,   -0.0,    0.1,   -0.1,   -0.1,    0.1,   -0.1,    0.0,   -0.1,   -0.1,   -0.1,  999.0,   -0.1,   -0.1,  999.0,  999.0,   -0.0,    0.1,    0.0,    0.1,    0.1,  999.0,  999.0,    0.0,    0.2,    0.1,    0.1,    0.1,    0.1,    0.1,  999.0,    0.0,    0.1,  999.0,  999.0,  999.0,  999.0,  999.0,  999.0,  999.0,   -0.0,  999.0,   -0.2,   -0.3,   -0.5,  999.0,  999.0,  999.0,   -0.2,  999.0,  999.0,   -0.7,  999.0,   -0.8,   -0.8,   -0.8,   -0.9,   -0.9,   -1.0,   -1.0,   -1.0,   -1.1,   -1.1,   -1.1,   -1.1,   -1.1,   -1.0,   -1.1,   -1.0,   -1.0,   -0.9,   -1.0,   -1.0,   -1.0,   -1.0,   -1.0,   -1.0,   -1.0,   -1.0,   -1.0,   -1.0,   -1.0,   -0.9,   -1.0,   -0.9,   -0.9,   -0.8,   -0.8,   -0.7,   -0.7,   -0.7,   -0.7,   -0.7,   -0.7
2011/04/17 02:40,    0.1,    0.1,    0.1,    0.1,    0.0,    0.1,    0.1,    0.2,    0.0,    0.1,    0.2,    0.0,    0.0,   -0.0,   -0.1,   -0.1,   -0.2,   -0.3,   -0.1,   -0.1,   -0.1,   -0.2,   -0.2,   -0.1,   -0.1,   -0.1,  999.0,    0.1,    0.1,    0.0,    0.0,    0.1,    0.1,    0.1,    0.1,  999.0,  999.0,  999.0,  999.0,  999.0,  999.0,  999.0,  999.0,  999.0,   -0.1,  999.0,   -0.1,   -0.1,   -0.1,   -0.2,  999.0,   -0.0,  999.0,  999.0,  999.0,   -0.8,   -0.8,   -0.8,   -0.9,   -0.9,   -1.0,   -1.1,   -1.0,   -1.0,   -1.1,   -1.1,   -1.1,   -1.1,   -1.0,   -1.0,   -1.0,   -1.0,   -1.0,   -1.0,   -1.0,   -1.0,   -1.0,   -1.0,   -1.0,   -1.0,   -1.0,   -0.9,   -0.9,   -0.9,   -0.9,   -0.9,   -0.9,   -0.9,   -0.9,   -0.9,   -0.9,   -0.8,   -0.7,   -0.7,   -0.7,   -0.7,   -0.7,   -0.6
2011/04/17 02:50,    0.1,    0.1,    0.1,    0.0,    0.0,    0.1,    0.1,    0.1,    0.1,    0.2,    0.1,    0.1,    0.0,    0.1,    0.1,    0.0,   -0.1,   -0.1,    0.2,   -0.1,  999.0,   -0.1,  999.0,  999.0,  999.0,    0.0,    0.1,    0.1,    0.1,  999.0,    0.1,    0.1,  999.0,  999.0,   -0.0,   -0.1,  999.0,   -0.1,  999.0,  999.0,  999.0,  999.0,  999.0,  999.0,  999.0,    0.1,    0.0,   -0.1,    0.0,   -0.1,  999.0,  999.0,  999.0,   -0.7,   -0.8,   -0.8,   -0.8,   -0.8,   -0.9,   -0.9,   -1.0,   -0.9,   -1.0,   -0.9,   -1.0,   -1.0,   -1.0,   -1.0,   -1.0,   -0.9,   -0.9,   -1.0,   -0.9,   -0.9,   -0.9,   -0.9,   -0.9,   -0.9,   -1.0,   -1.0,   -1.0,   -1.0,   -1.0,   -1.0,   -1.0,   -1.0,   -1.0,   -1.0,   -1.0,   -1.0,   -0.9,   -0.9,   -0.9,   -0.9,   -0.9,   -0.9,   -0.9,   -0.9
2011/04/17 03:00,   -0.1,    0.0,   -0.2,    0.0,   -0.1,   -0.1,   -0.1,    0.0,   -0.0,    0.0,   -0.1,   -0.1,   -0.1,   -0.1,   -0.1,   -0.0,   -0.0,  999.0,   -0.1,   -0.1,   -0.1,   -0.2,   -0.0,  999.0,   -0.0,   -0.0,    0.1,  999.0,   -0.0,   -0.0,   -0.0,  999.0,  999.0,   -0.1,  999.0,   -0.1,    0.0,  999.0,  999.0,  999.0,  999.0,  999.0,    0.2,  999.0,  999.0,    0.1,    0.1,   -0.1,   -0.1,   -0.0,   -0.0,  999.0,  999.0,   -0.7,   -0.6,   -0.7,   -0.7,   -0.8,   -0.8,   -0.8,   -0.8,   -0.8,   -0.8,   -0.8,   -0.9,   -0.8,   -0.9,   -0.9,   -0.9,   -0.9,   -0.8,   -0.7,   -0.8,   -0.7,   -0.8,   -0.8,   -0.8,   -0.8,   -0.9,   -0.9,   -0.9,   -0.9,   -0.9,   -0.8,   -0.9,   -0.9,   -0.9,   -0.9,   -0.9,   -0.9,   -0.9,   -0.9,   -0.8,   -0.9,   -0.8,   -0.9,   -1.1,   -0.6
2011/04/17 03:10,    0.0,    0.2,    0.3,   -0.0,   -0.0,   -0.1,   -0.0,    0.0,    0.0,    0.1,   -0.0,    0.0,    0.1,   -0.1,   -0.1,  999.0,   -0.1,   -0.3,   -0.2,   -0.1,   -0.2,   -0.2,  999.0,   -0.1,   -0.0,    0.0,  999.0,   -0.1,    0.1,    0.1,    0.1,   -0.2,    0.1,    0.1,  999.0,    0.1,    0.1,    0.3,    0.1,  999.0,  999.0,  999.0,  999.0,  999.0,  999.0,  999.0,  999.0,  999.0,   -0.0,  999.0,  999.0,  999.0,   -0.6,   -0.7,   -0.7,   -0.7,   -0.8,   -0.8,   -0.7,  999.0,  999.0,   -0.7,   -0.8,   -0.7,   -0.7,   -0.7,   -0.6,   -0.6,   -0.7,   -0.7,   -0.6,   -0.7,   -0.7,   -0.7,   -0.7,   -0.8,   -0.8,   -0.8,   -0.9,   -0.9,   -0.8,   -0.8,   -0.8,   -0.8,   -0.8,   -0.8,   -0.8,   -0.9,   -0.8,   -0.8,   -0.8,   -0.8,   -0.7,   -0.7,   -0.7,   -0.7,   -0.8,  999.0
2011/04/17 03:20,    0.2,    0.0,   -0.0,   -0.0,    0.0,   -0.1,    0.1,    0.1,    0.1,    0.1,    0.0,    0.1,    0.0,    0.1,    0.0,   -0.2,   -0.1,   -0.0,   -0.2,   -0.1,  999.0,   -0.1,    0.0,  999.0,    0.1,   -0.1,   -0.1,    0.1,   -0.2,   -0.1,    0.0,    0.1,  999.0,    0.0,  999.0,  999.0,    0.2,    0.1,    0.2,    0.1,    0.0,  999.0,  999.0,  999.0,  999.0,  999.0,    0.2,    0.1,   -0.1,  999.0,  999.0,  999.0,  999.0,   -0.4,   -0.6,   -0.6,  999.0,  999.0,  999.0,  999.0,  999.0,  999.0,  999.0,   -0.5,   -0.6,   -0.6,   -0.6,   -0.7,   -0.7,   -0.7,   -0.8,   -0.8,   -0.8,   -0.8,   -0.8,   -0.8,   -0.9,   -0.9,   -0.9,   -0.9,   -0.9,   -0.9,   -0.9,   -1.0,   -0.8,   -0.8,   -0.8,   -0.9,   -0.8,   -0.8,   -1.0,   -0.9,   -0.8,   -0.9,   -0.9,  999.0,  999.0,  999.0
2011/04/17 03:30,    0.0,   -0.0,   -0.0,    0.0,    0.0,    0.0,   -0.0,   -0.0,   -0.0,    0.1,   -0.0,   -0.1,   -0.1,   -0.3,   -0.1,   -0.2,    0.1,   -0.1,   -0.1,   -0.0,   -0.0,    0.0,    0.1,    0.0,    0.3,    0.2,    0.1,    0.2,    0.2,    0.2,  999.0,  999.0,    0.0,   -0.0,   -0.0,  999.0,    0.1,   -0.1,    0.1,   -0.0,  999.0,  999.0,  999.0,  999.0,  999.0,  999.0,   -0.1,   -0.1,  999.0,  999.0,   -0.1,   -0.3,   -0.3,   -0.2,  999.0,   -0.5,  999.0,  999.0,  999.0,  999.0,  999.0,   -0.7,   -0.7,   -0.7,   -0.7,   -0.7,   -0.8,   -0.8,   -0.8,   -0.8,   -0.9,   -0.8,   -0.8,   -0.8,   -0.8,   -0.8,   -0.8,   -0.8,   -0.8,   -0.8,   -0.7,   -0.7,   -0.7,   -0.7,   -0.7,   -0.7,   -0.7,   -0.7,   -0.7,   -0.7,   -0.6,   -0.6,   -0.5,   -0.4,   -0.6,   -0.4,   -0.2,  999.0
2011/04/17 03:40,   -0.0,   -0.1,    0.0,   -0.1,    0.0,   -0.0,    0.1,   -0.0,    0.1,    0.1,   -0.0,   -0.0,   -0.0,    0.1,    0.1,   -0.1,   -0.1,   -0.1,   -0.0,   -0.3,   -0.0,    0.1,    0.1,   -0.1,   -0.1,   -0.0,   -0.1,   -0.2,   -0.2,   -0.1,   -0.1,    0.1,   -0.0,    0.2,    0.1,    0.2,    0.1,  999.0,   -0.0,  999.0,  999.0,  999.0,  999.0,  999.0,  999.0,  999.0,  999.0,   -0.0,   -0.1,  999.0,  999.0,   -0.7,   -0.5,  999.0,  999.0,  999.0,  999.0,  999.0,  999.0,  999.0,   -0.8,   -0.8,   -0.8,   -0.8,   -0.8,   -0.7,   -0.7,   -0.7,   -0.6,   -0.6,   -0.6,   -0.6,   -0.6,   -0.6,   -0.6,   -0.6,   -0.6,   -0.7,   -0.7,   -0.8,   -0.8,   -0.8,   -0.8,   -0.8,   -0.8,   -0.8,   -0.8,   -0.8,   -0.8,   -0.8,   -0.8,   -0.7,   -0.7,   -0.7,   -0.6,  999.0,  999.0,  999.0
2011/04/17 03:50,   -0.1,    0.1,    0.0,    0.0,    0.1,    0.1,    0.0,    0.1,    0.1,   -0.0,   -0.0,   -0.1,   -0.4,  999.0,   -0.5,   -0.2,   -0.1,  999.0,   -0.5,   -0.1,   -0.2,   -0.3,   -0.4,   -0.0,    0.0,   -0.1,   -0.2,   -0.0,    0.0,    0.0,   -0.1,    0.0,    0.2,    0.2,    0.2,    0.5,  999.0,  999.0,    0.1,    0.1,    0.1,  999.0,  999.0,  999.0,   -0.0,  999.0,  999.0,  999.0,   -0.1,   -0.3,   -0.1,   -0.4,  999.0,  999.0,  999.0,  999.0,  999.0,  999.0,  999.0,   -0.8,   -0.7,   -0.7,   -0.7,   -0.6,   -0.6,   -0.6,   -0.6,   -0.7,   -0.6,   -0.6,  999.0,   -0.7,   -0.6,   -0.6,   -0.6,   -0.6,   -0.7,   -0.7,   -0.7,   -0.8,   -0.8,   -0.9,   -0.8,   -0.9,   -0.9,   -0.9,   -0.9,   -0.9,   -0.9,   -0.9,   -0.8,   -0.8,   -0.8,  999.0,  999.0,   -0.7,  999.0,  999.0
2011/04/17 04:00,    0.0,   -0.1,   -0.0,   -0.0,   -0.1,   -0.1,   -0.1,   -0.0,   -0.2,   -0.1,   -0.0,   -0.1,    0.0,   -0.1,   -0.1,   -0.1,    0.0,    0.1,    0.0,    0.0,    0.1,    0.1,    0.3,    0.1,    0.1,    0.3,    0.4,    0.0,    0.1,    0.1,    0.2,    0.2,    0.1,    0.2,    0.2,    0.3,    0.4,  999.0,   -0.1,    0.1,    0.2,  999.0,  999.0,  999.0,  999.0,   -0.1,  999.0,  999.0,   -0.0,  999.0,   -0.2,  999.0,  999.0,  999.0,  999.0,  999.0,  999.0,   -0.8,   -0.7,   -0.8,   -0.9,   -0.9,   -0.9,   -0.8,   -0.8,   -0.8,   -0.8,   -0.8,   -0.8,   -0.8,   -0.8,   -0.9,   -0.8,   -0.8,   -0.8,   -0.9,   -0.9,   -0.9,   -0.9,   -1.0,   -1.0,   -0.9,   -1.1,   -1.3,   -0.9,   -1.2,   -0.6,   -1.4,   -1.4,  999.0,  999.0,  999.0,  999.0,  999.0,  999.0,  999.0,  999.0,  999.0
2011/04/17 04:10,    0.1,    0.1,   -0.0,   -0.1,   -0.1,   -0.1,    0.0,   -0.0,   -0.2,   -0.0,   -0.0,   -0.0,   -0.0,   -0.1,   -0.1,   -0.1,   -0.1,   -0.1,   -0.1,   -0.0,   -0.2,    0.0,   -0.1,   -0.1,   -0.2,   -0.2,   -0.1,   -0.3,   -0.3,   -0.4,   -0.2,   -0.3,   -0.3,   -0.2,   -0.2,   -0.2,   -0.3,  999.0,  999.0,  999.0,  999.0,  999.0,  999.0,  999.0,  999.0,   -0.1,   -0.1,    0.0,    0.0,   -0.0,   -0.0,  999.0,  999.0,  999.0,  999.0,  999.0,   -0.8,   -0.8,   -0.8,   -0.8,   -0.9,   -0.9,   -0.9,   -0.8,   -0.8,   -0.8,   -0.8,   -0.7,   -0.7,   -0.6,   -0.6,   -0.6,   -0.6,   -0.6,   -0.6,   -0.6,   -0.7,   -0.6,   -0.8,   -0.8,   -0.7,   -0.9,   -1.1,   -1.2,   -0.3,   -0.4,   -0.8,   -0.5,  999.0,  999.0,   -0.7,  999.0,   -0.8,  999.0,  999.0,  999.0,   -0.5,  999.0
2011/04/17 04:20,   -0.0,    0.1,    0.1,    0.0,   -0.1,   -0.1,    0.1,   -0.0,    0.1,    0.0,   -0.1,    0.1,    0.1,   -0.0,   -0.1,   -0.0,   -0.1,   -0.0,    0.2,    0.1,   -0.1,  999.0,    0.1,    0.1,   -0.0,   -0.0,    0.2,    0.1,    0.1,    0.0,    0.1,    0.0,   -0.1,   -0.1,   -0.0,    0.0,    0.0,  999.0,  999.0,  999.0,  999.0,    0.1,  999.0,  999.0,  999.0,  999.0,  999.0,  999.0,  999.0,  999.0,   -0.1,  999.0,  999.0,  999.0,  999.0,  999.0,   -0.7,   -0.8,   -0.8,   -0.6,   -0.8,   -0.8,   -0.8,   -0.7,   -0.7,   -0.8,   -0.8,   -0.8,   -0.8,   -0.9,   -0.9,   -0.9,   -1.0,   -0.9,   -1.0,   -1.0,   -1.0,   -1.0,   -1.0,   -1.0,   -1.0,   -0.9,   -0.9,   -0.9,   -0.7,   -0.8,   -0.8,   -0.8,   -0.8,   -0.7,   -0.6,   -0.7,   -0.7,  999.0,  999.0,  999.0,  999.0,  999.0
2011/04/17 04:30,   -0.1,    0.0,    0.2,    0.0,  999.0,    0.2,   -0.0,    0.0,   -0.0,    0.0,   -0.3,   -0.0,    0.1,   -0.2,   -0.0,    0.0,   -0.1,   -0.1,   -0.1,   -0.1,   -0.0,    0.0,   -0.1,   -0.0,   -0.1,  999.0,   -0.1,    0.0,   -0.1,   -0.2,   -0.2,   -0.1,   -0.3,   -0.1,   -0.2,   -0.2,   -0.2,  999.0,  999.0,  999.0,  999.0,  999.0,  999.0,  999.0,  999.0,  999.0,  999.0,  999.0,  999.0,   -0.2,  999.0,  999.0,  999.0,  999.0,  999.0,  999.0,   -0.6,  999.0,  999.0,   -0.6,   -0.5,   -0.5,   -0.5,   -0.5,   -0.5,   -0.6,   -0.6,   -0.7,   -0.8,   -0.8,   -0.9,   -0.9,   -0.9,   -0.9,   -0.9,   -0.9,   -0.9,   -0.9,   -0.9,   -0.9,   -0.9,   -0.9,   -0.8,   -0.8,   -0.8,   -0.8,   -0.8,   -0.8,   -0.7,   -0.7,   -0.6,   -0.6,   -0.6,   -0.8,  999.0,  999.0,  999.0,  999.0
2011/04/17 04:40,    0.1,   -0.0,    0.0,   -0.2,   -0.0,   -0.1,   -0.1,   -0.1,    0.1,    0.2,   -0.1,   -0.1,   -0.2,  999.0,    0.0,    0.1,    0.0,   -0.0,   -0.0,   -0.0,   -0.0,    0.3,    0.1,    0.1,    0.0,   -0.1,    0.1,  999.0,  999.0,   -0.1,   -0.2,   -0.0,   -0.2,  999.0,    0.1,    0.1,    0.2,  999.0,  999.0,  999.0,   -0.0,  999.0,  999.0,  999.0,  999.0,  999.0,  999.0,  999.0,  999.0,  999.0,   -0.3,  999.0,  999.0,  999.0,  999.0,  999.0,  999.0,  999.0,   -1.0,   -1.0,   -1.0,   -1.0,   -1.0,   -0.9,   -0.9,   -0.9,   -1.0,   -1.0,   -1.0,   -1.0,   -1.0,   -1.0,   -0.9,   -0.9,   -0.8,   -0.8,   -0.8,   -0.8,   -0.8,   -0.9,   -0.9,   -0.9,   -0.9,   -0.9,   -0.9,   -0.9,   -0.9,   -0.9,   -0.9,   -0.9,   -0.8,   -0.9,   -0.8,   -0.7,   -0.7,  999.0,  999.0,  999.0
2011/04/17 04:50,   -0.0,   -0.1,   -0.0,    0.1,    0.1,    0.0,   -0.0,   -0.0,    0.0,   -0.0,    0.2,    0.0,  999.0,  999.0,   -0.1,    0.2,    0.0,    0.0,   -0.0,    0.0,    0.0,   -0.1,   -0.0,    0.2,    0.1,    0.2,    0.2,    0.3,    0.2,    0.2,    0.1,    0.2,    0.1,    0.1,    0.3,    0.2,    0.3,  999.0,  999.0,  999.0,  999.0,  999.0,  999.0,    0.0,  999.0,  999.0,  999.0,   -0.3,   -0.3,   -0.4,  999.0,  999.0,  999.0,  999.0,  999.0,   -0.9,   -1.0,   -1.1,   -1.2,   -1.1,   -1.2,   -1.1,   -1.1,   -1.0,   -1.0,   -1.0,   -0.9,   -0.9,   -0.9,   -0.9,   -0.9,   -0.9,   -0.8,   -0.8,   -0.8,   -0.7,   -0.7,   -0.7,   -0.8,   -0.8,   -0.8,   -0.8,   -0.8,   -0.8,   -0.8,   -0.8,   -0.8,   -0.7,   -0.8,   -0.7,   -0.7,   -0.7,   -0.6,   -0.5,  999.0,  999.0,  999.0,  999.0
2011/04/17 05:00,   -0.0,   -0.1,   -0.3,   -0.0,    0.2,   -0.2,   -0.0,   -0.3,   -0.5,   -0.5,   -0.2,   -0.6,   -0.4,  999.0,  999.0,  999.0,   -0.2,   -0.4,   -0.1,   -0.4,    0.1,    0.4,    0.4,    0.0,   -0.0,    0.0,    0.1,   -0.0,   -0.0,   -0.3,   -0.2,   -0.1,    0.0,   -0.2,    0.4,    0.4,    0.1,  999.0,  999.0,  999.0,  999.0,  999.0,  999.0,   -0.0,    0.1,   -0.0,  999.0,   -0.1,   -0.3,  999.0,  999.0,  999.0,  999.0,  999.0,   -0.8,   -0.8,   -0.9,   -1.0,   -1.0,   -1.0,   -1.0,   -0.9,   -0.9,   -0.9,   -0.9,   -0.9,   -0.9,   -0.9,   -0.9,   -0.9,   -0.8,   -0.8,   -0.8,   -0.8,   -0.7,   -0.7,   -0.8,   -0.8,   -0.8,   -0.8,   -0.8,   -0.8,   -0.7,   -0.7,   -0.7,   -0.7,   -0.7,   -0.7,   -0.7,   -0.8,   -0.7,  999.0,  999.0,  999.0,  999.0,  999.0,  999.0,  999.0
2011/04/17 05:10,    0.0,  999.0,  999.0,  999.0,  999.0,    0.1,   -0.1,    0.1,   -0.6,   -0.4,   -0.2,   -0.4,    0.1,    0.1,   -0.2,   -0.2,   -0.3,   -0.2,   -0.3,   -0.1,   -0.0,   -0.1,   -0.2,   -0.3,   -0.2,   -0.2,   -0.1,   -0.2,   -0.2,   -0.2,   -0.3,   -0.3,   -0.3,  999.0,   -0.1,   -0.1,   -0.0,  999.0,  999.0,  999.0,  999.0,  999.0,   -0.2,    0.1,  999.0,  999.0,  999.0,  999.0,    0.0,  999.0,  999.0,  999.0,  999.0,  999.0,   -0.7,   -0.7,   -0.6,   -0.7,   -0.8,   -0.8,   -0.9,   -0.9,   -1.0,   -1.0,   -1.0,   -1.0,   -0.9,   -0.9,   -0.9,   -0.9,   -0.9,   -0.9,   -1.0,   -1.0,   -1.0,   -1.0,   -1.0,   -1.0,   -1.0,   -1.0,   -1.0,   -1.0,   -0.9,   -0.9,   -1.0,   -1.0,   -0.9,  999.0,  999.0,   -0.8,  999.0,  999.0,  999.0,  999.0,  999.0,  999.0,  999.0,  999.0
2011/04/17 05:20,  999.0,  999.0,  999.0,   -0.1,   -0.0,    0.2,    0.1,    0.0,   -0.1,    0.1,  999.0,    0.1,    0.1,    0.2,    0.3,    0.2,    0.3,    0.2,   -0.0,   -0.1,   -0.2,   -0.1,   -0.3,   -0.2,   -0.3,   -0.3,   -0.3,   -0.4,   -0.5,   -0.4,   -0.2,   -0.2,   -0.0,   -0.0,    0.2,    0.0,  999.0,  999.0,  999.0,  999.0,  999.0,  999.0,  999.0,  999.0,    0.0,  999.0,  999.0,  999.0,  999.0,  999.0,  999.0,  999.0,  999.0,   -0.7,   -0.8,   -0.8,   -0.9,   -1.0,   -1.0,   -1.0,   -1.1,   -1.1,   -1.0,   -1.0,   -0.9,   -0.9,   -0.9,   -0.9,   -0.9,   -1.0,   -1.0,   -1.1,   -1.1,   -1.1,   -1.1,   -1.0,   -1.0,   -1.0,   -1.1,   -1.0,   -1.1,   -0.9,   -1.0,  999.0,   -0.6,  999.0,  999.0,  999.0,  999.0,  999.0,  999.0,  999.0,  999.0,  999.0,  999.0,  999.0,  999.0,  999.0
2011/04/17 05:30,  999.0,  999.0,  999.0,    0.0,   -0.0,   -0.1,    0.2,   -0.0,   -0.0,   -0.1,    0.1,   -0.0,   -0.1,    0.0,   -0.1,    0.1,    0.0,    0.1,    0.2,    0.1,    0.1,   -0.0,   -0.0,   -0.1,   -0.1,   -0.1,   -0.0,   -0.2,   -0.1,  999.0,   -0.2,   -0.0,    0.1,    0.0,    0.2,   -0.2,   -0.1,  999.0,  999.0,  999.0,   -0.2,   -0.2,   -0.3,   -0.2,   -0.2,  999.0,   -0.6,   -0.8,   -1.1,   -1.1,   -1.2,   -1.2,   -1.2,   -1.2,   -1.1,   -1.1,   -1.1,   -1.1,   -1.1,   -1.1,   -1.1,   -1.1,   -1.1,   -1.1,   -1.0,   -1.0,   -0.9,   -1.0,   -0.9,   -0.9,   -0.9,   -1.0,   -1.0,   -0.9,   -0.9,   -0.9,   -1.0,   -1.0,  999.0,   -0.9,  999.0,  999.0,  999.0,  999.0,  999.0,   -0.8,  999.0,  999.0,  999.0,  999.0,  999.0,  999.0,   -0.6,  999.0,  999.0,  999.0,  999.0,  999.0
2011/04/17 05:40,  999.0,  999.0,    0.3,   -0.0,    0.0,   -0.1,   -0.0,    0.1,    0.1,    0.1,    0.1,    0.1,   -0.1,   -0.1,   -0.1,   -0.2,   -0.1,   -0.2,   -0.2,   -0.3,   -0.4,   -0.3,   -0.1,    0.1,    0.1,    0.1,    0.0,   -0.1,   -0.1,   -0.0,   -0.0,    0.1,   -0.1,    0.0,   -0.2,   -0.2,   -0.2,  999.0,  999.0,  999.0,    0.2,    0.2,    0.3,    0.4,    0.3,   -0.8,   -0.7,   -0.8,   -0.8,   -0.9,   -1.0,   -1.1,   -1.1,   -1.1,   -1.0,   -1.0,   -1.0,   -1.1,   -1.1,   -1.1,   -1.1,   -1.1,   -1.0,   -1.0,   -0.9,   -0.9,   -0.9,   -0.9,   -0.9,   -0.9,   -0.9,   -1.0,   -0.8,   -1.0,   -1.0,   -0.9,   -0.9,   -0.9,  999.0,  999.0,  999.0,  999.0,  999.0,  999.0,  999.0,  999.0,  999.0,   -0.7,  999.0,  999.0,  999.0,  999.0,  999.0,  999.0,  999.0,  999.0,  999.0,  999.0
2011/04/17 05:50,  999.0,    0.0,  999.0,  999.0,   -0.0,    0.1,    0.2,    0.1,    0.2,    0.1,    0.2,    0.0,    0.2,    0.2,   -0.0,   -0.0,    0.0,    0.0,   -0.0,   -0.1,   -0.1,   -0.1,   -0.2,   -0.2,    0.0,    0.1,    0.1,    0.1,    0.1,    0.1,    0.1,   -0.0,   -0.0,   -0.1,   -0.1,   -0.0,   -0.0,   -0.0,  999.0,  999.0,   -0.0,   -0.2,   -0.1,   -0.2,   -0.2,   -0.8,   -0.7,   -0.9,   -0.9,   -0.9,   -0.9,   -0.9,   -0.9,   -0.9,   -0.8,   -0.8,   -0.9,   -0.9,   -1.0,   -1.0,   -1.0,   -1.0,   -0.9,   -0.9,   -0.8,   -0.8,   -0.9,   -0.9,   -0.9,   -0.9,   -1.0,   -1.0,   -1.1,   -1.0,   -1.0,   -1.1,   -1.0,   -0.9,  999.0,  999.0,  999.0,  999.0,  999.0,  999.0,  999.0,  999.0,  999.0,  999.0,  999.0,  999.0,  999.0,  999.0,  999.0,  999.0,  999.0,  999.0,  999.0,  999.0
2011/04/17 06:00,    0.0,   -0.1,    0.0,  999.0,   -0.1,   -0.0,    0.1,    0.1,    0.2,    0.1,    0.1,    0.2,    0.3,    0.4,    0.3,    0.3,    0.2,    0.2,    0.0,    0.2,   -0.0,   -0.1,   -0.1,   -0.2,   -0.1,    0.0,    0.1,    0.1,   -0.0,   -0.1,   -0.2,   -0.1,   -0.1,   -0.1,    0.0,    0.0,   -0.3,   -0.1,  999.0,   -0.2,   -0.2,   -0.1,   -0.1,   -0.2,   -0.1,   -0.2,  999.0,  999.0,   -0.8,   -0.9,   -1.0,   -1.1,   -1.1,   -1.1,   -1.0,   -1.0,   -1.0,   -1.0,   -1.0,   -1.0,   -1.0,   -0.9,   -0.8,   -0.9,   -0.8,   -0.8,   -0.8,   -0.9,   -0.9,   -0.9,   -0.9,   -0.8,   -0.8,   -0.8,  999.0,  999.0,  999.0,   -0.7,  999.0,   -0.6,  999.0,  999.0,  999.0,  999.0,  999.0,  999.0,  999.0,  999.0,  999.0,  999.0,  999.0,  999.0,  999.0,  999.0,  999.0,  999.0,  999.0,  999.0
2011/04/17 06:10,  999.0,    0.1,    0.4,    0.2,    0.3,    0.3,    0.1,    0.2,    0.1,    0.2,    0.0,    0.0,    0.1,    0.1,    0.1,    0.1,    0.0,   -0.0,   -0.1,   -0.0,   -0.1,   -0.1,   -0.1,   -0.0,    0.0,    0.1,    0.0,    0.1,   -0.0,   -0.1,   -0.2,   -0.1,   -0.2,  999.0,   -0.1,   -0.3,  999.0,  999.0,  999.0,    0.0,    0.0,   -0.0,   -0.0,   -0.1,   -0.1,   -0.0,  999.0,  999.0,   -1.0,   -1.2,   -1.2,   -1.2,   -1.1,   -1.0,   -0.9,   -0.9,   -0.9,   -0.9,   -1.0,   -1.0,   -0.9,   -0.9,   -0.8,   -0.9,   -1.0,   -1.0,   -1.1,   -1.1,   -1.1,  999.0,   -0.7,   -0.6,   -0.7,   -0.9,  999.0,   -0.7,  999.0,  999.0,  999.0,  999.0,  999.0,  999.0,  999.0,  999.0,  999.0,  999.0,  999.0,  999.0,  999.0,  999.0,  999.0,  999.0,  999.0,  999.0,  999.0,  999.0,  999.0,  999.0
2011/04/17 06:20,   -0.0,   -0.0,   -0.0,   -0.0,   -0.1,   -0.1,   -0.2,   -0.2,   -0.2,   -0.1,   -0.2,   -0.2,   -0.2,   -0.1,   -0.2,   -0.2,   -0.2,   -0.2,   -0.1,   -0.0,   -0.1,   -0.0,    0.1,    0.0,    0.1,    0.1,    0.2,    0.2,    0.2,    0.2,  999.0,   -0.0,   -0.0,    0.1,    0.1,    0.0,  999.0,  999.0,   -0.1,    0.1,  999.0,   -0.0,   -0.1,   -0.1,   -0.2,   -0.1,  999.0,  999.0,   -0.9,   -0.7,   -0.5,  999.0,   -1.0,   -1.0,   -1.0,   -1.0,   -1.0,   -1.0,   -1.0,   -1.0,   -1.0,   -1.0,   -0.9,   -0.9,   -0.9,   -1.0,   -0.8,   -0.9,   -0.8,   -0.8,   -0.7,   -0.7,  999.0,   -0.7,  999.0,   -0.6,  999.0,  999.0,  999.0,  999.0,  999.0,  999.0,  999.0,  999.0,  999.0,  999.0,  999.0,  999.0,  999.0,  999.0,  999.0,  999.0,  999.0,  999.0,  999.0,  999.0,   -0.5,  999.0
2011/04/17 06:30,   -0.1,   -0.0,   -0.0,   -0.1,   -0.1,   -0.1,  999.0,    0.0,    0.0,  999.0,   -0.0,    0.0,   -0.1,   -0.1,   -0.1,   -0.2,   -0.2,   -0.4,   -0.3,   -0.3,   -0.3,   -0.2,   -0.2,   -0.0,   -0.0,   -0.1,   -0.1,   -0.1,   -0.0,    0.0,    0.0,   -0.0,   -0.3,  999.0,  999.0,  999.0,  999.0,    0.2,  999.0,    0.1,  999.0,    0.2,    0.0,    0.0,    0.0,  999.0,  999.0,  999.0,  999.0,  999.0,  999.0,  999.0,  999.0,  999.0,   -0.8,   -0.8,   -0.9,   -0.9,   -0.9,   -0.9,   -0.9,   -0.9,   -0.9,   -1.0,   -0.9,   -0.9,   -0.8,   -0.7,   -0.7,   -0.7,   -0.7,   -0.7,  999.0,  999.0,   -0.8,  999.0,   -0.8,  999.0,  999.0,  999.0,  999.0,  999.0,  999.0,  999.0,  999.0,  999.0,  999.0,  999.0,   -0.7,   -0.7,   -0.7,   -0.7,   -0.6,   -0.6,   -0.6,   -0.6,   -0.6,   -0.6
2011/04/17 06:40,    0.0,    0.0,   -0.0,   -0.0,    0.0,    0.0,    0.1,    0.1,    0.2,    0.0,    0.0,    0.0,    0.1,   -0.0,   -0.1,   -0.1,   -0.1,   -0.1,   -0.0,   -0.1,   -0.1,   -0.1,    0.0,   -0.1,   -0.0,   -0.0,    0.0,   -0.0,    0.0,   -0.0,  999.0,   -0.1,    0.1,    0.1,  999.0,  999.0,  999.0,  999.0,  999.0,  999.0,  999.0,  999.0,   -0.1,   -0.1,   -0.1,  999.0,  999.0,  999.0,  999.0,  999.0,  999.0,  999.0,  999.0,   -0.8,   -0.9,   -0.9,   -0.9,   -0.8,   -0.8,   -0.8,   -0.8,   -0.8,   -0.8,   -0.8,   -0.7,   -0.7,   -0.6,   -0.8,   -0.8,  999.0,  999.0,  999.0,  999.0,  999.0,  999.0,  999.0,  999.0,  999.0,  999.0,  999.0,  999.0,   -0.8,   -0.7,   -0.7,   -0.8,   -0.8,   -0.7,   -0.7,   -0.6,   -0.7,   -0.7,  999.0,   -0.7,  999.0,  999.0,   -0.4,  999.0,  999.0
2011/04/17 06:50,  999.0,    0.0,    0.0,    0.0,    0.0,   -0.1,    0.0,   -0.0,    0.0,   -0.0,    0.1,    0.1,    0.1,   -0.0,  999.0,   -0.0,   -0.0,   -0.1,   -0.0,    0.0,   -0.0,   -0.0,    0.0,    0.1,    0.1,   -0.0,    0.1,    0.1,   -0.0,    0.0,   -0.1,   -0.3,   -0.4,   -0.2,   -0.4,   -0.1,  999.0,  999.0,   -0.2,  999.0,  999.0,    0.0,   -0.1,    0.0,    0.0,  999.0,  999.0,  999.0,  999.0,  999.0,  999.0,  999.0,  999.0,  999.0,   -0.7,   -0.8,  999.0,  999.0,   -0.6,   -0.3,  999.0,  999.0,   -0.7,   -0.8,   -0.7,   -0.6,  999.0,  999.0,  999.0,  999.0,  999.0,  999.0,  999.0,  999.0,  999.0,  999.0,  999.0,  999.0,   -0.8,   -0.7,   -0.7,   -0.7,   -0.7,   -0.7,   -0.6,  999.0,  999.0,  999.0,   -0.7,  999.0,  999.0,  999.0,  999.0,  999.0,  999.0,  999.0,  999.0,  999.0
2011/04/17 07:00,    0.0,   -0.1,   -0.0,   -0.0,   -0.0,   -0.0,    0.0,   -0.1,   -0.1,   -0.0,    0.0,   -0.0,    0.1,    0.1,    0.1,    0.1,    0.1,    0.1,    0.1,   -0.0,   -0.1,   -0.2,   -0.2,   -0.1,   -0.0,   -0.1,   -0.1,   -0.1,   -0.1,   -0.1,   -0.0,    0.0,  999.0,   -0.1,  999.0,  999.0,  999.0,   -0.1,   -0.1,  999.0,  999.0,   -0.2,   -0.0,    0.0,   -0.1,  999.0,  999.0,  999.0,  999.0,  999.0,  999.0,  999.0,  999.0,  999.0,  999.0,  999.0,  999.0,  999.0,  999.0,  999.0,  999.0,  999.0,  999.0,   -0.5,  999.0,  999.0,  999.0,  999.0,  999.0,  999.0,  999.0,  999.0,  999.0,  999.0,  999.0,  999.0,  999.0,  999.0,  999.0,   -0.6,  999.0,   -0.6,   -0.6,  999.0,  999.0,  999.0,  999.0,  999.0,  999.0,  999.0,  999.0,  999.0,  999.0,  999.0,  999.0,  999.0,  999.0,  999.0
2011/04/17 07:10,    0.0,    0.0,    0.0,   -0.0,    0.0,    0.0,    0.1,    0.0,   -0.0,   -0.0,    0.0,   -0.0,   -0.1,    0.0,    0.0,    0.1,   -0.0,    0.0,    0.0,    0.0,   -0.0,   -0.1,   -0.1,   -0.1,   -0.0,    0.0,    0.0,   -0.0,   -0.1,   -0.1,   -0.1,   -0.1,   -0.1,  999.0,  999.0,  999.0,   -0.1,   -0.2,    0.0,  999.0,   -0.1,   -0.0,    0.0,   -0.0,   -0.1,   -0.3,   -0.1,  999.0,  999.0,  999.0,    0.1,  999.0,  999.0,  999.0,  999.0,  999.0,  999.0,  999.0,   -0.7,   -0.8,   -0.8,   -0.8,   -0.7,   -0.8,   -0.7,   -0.6,   -0.6,  999.0,  999.0,  999.0,   -0.7,  999.0,  999.0,   -0.7,   -0.7,  999.0,  999.0,  999.0,  999.0,  999.0,  999.0,  999.0,  999.0,  999.0,  999.0,  999.0,  999.0,  999.0,  999.0,  999.0,  999.0,  999.0,  999.0,  999.0,  999.0,  999.0,  999.0,  999.0
2011/04/17 07:20,   -0.0,    0.0,    0.1,   -0.1,   -0.0,    0.0,   -0.0,   -0.1,   -0.0,   -0.0,   -0.0,   -0.0,   -0.2,   -0.1,   -0.1,   -0.1,   -0.2,   -0.1,   -0.2,   -0.2,   -0.1,   -0.1,   -0.1,   -0.1,    0.1,    0.1,    0.1,    0.1,    0.1,    0.1,    0.3,   -0.3,    0.0,   -0.1,  999.0,  999.0,  999.0,    0.1,  999.0,    0.0,    0.1,    0.0,   -0.0,    0.0,   -0.1,  999.0,  999.0,  999.0,  999.0,  999.0,  999.0,  999.0,   -0.0,  999.0,  999.0,  999.0,  999.0,   -0.8,   -0.7,   -0.8,   -0.7,   -0.7,   -0.7,   -0.7,   -0.7,   -0.6,   -0.7,   -0.8,   -0.7,   -0.7,   -0.7,   -0.7,   -0.6,   -0.6,  999.0,  999.0,  999.0,  999.0,  999.0,  999.0,  999.0,  999.0,  999.0,  999.0,  999.0,  999.0,  999.0,  999.0,  999.0,  999.0,  999.0,  999.0,  999.0,  999.0,  999.0,  999.0,  999.0,  999.0
2011/04/17 07:30,   -0.0,    0.1,   -0.0,    0.0,    0.1,    0.1,    0.0,    0.0,    0.0,    0.1,    0.0,    0.0,   -0.0,   -0.0,   -0.1,   -0.1,   -0.1,   -0.1,   -0.2,   -0.1,   -0.1,   -0.1,   -0.1,   -0.1,   -0.1,   -0.0,   -0.1,   -0.1,   -0.1,   -0.0,   -0.2,    0.1,    0.0,   -0.0,  999.0,  999.0,  999.0,  999.0,   -0.1,   -0.1,   -0.1,   -0.0,   -0.1,   -0.1,   -0.1,  999.0,  999.0,  999.0,  999.0,  999.0,  999.0,  999.0,   -0.0,  999.0,  999.0,  999.0,  999.0,  999.0,  999.0,  999.0,   -0.8,   -0.7,   -0.8,   -0.7,   -0.7,   -0.7,   -0.6,   -0.5,   -0.4,  999.0,  999.0,  999.0,  999.0,  999.0,  999.0,  999.0,  999.0,  999.0,  999.0,  999.0,  999.0,  999.0,  999.0,  999.0,  999.0,  999.0,  999.0,  999.0,  999.0,  999.0,  999.0,  999.0,  999.0,  999.0,  999.0,  999.0,  999.0,  999.0
2011/04/17 07:40,    0.0,    0.1,   -0.1,    0.1,    0.1,    0.1,    0.2,    0.1,    0.1,    0.0,   -0.0,   -0.1,   -0.1,   -0.0,   -0.1,   -0.1,   -0.0,   -0.1,   -0.2,   -0.1,   -0.1,   -0.0,   -0.1,   -0.1,   -0.1,   -0.1,   -0.2,   -0.2,  999.0,  999.0,   -0.0,    0.0,   -0.1,  999.0,  999.0,  999.0,    0.1,    0.1,    0.1,    0.1,    0.2,    0.2,    0.2,    0.3,    0.3,  999.0,  999.0,  999.0,  999.0,  999.0,  999.0,  999.0,    0.0,  999.0,  999.0,  999.0,  999.0,  999.0,  999.0,   -0.7,   -0.9,   -0.9,   -0.9,   -1.0,   -0.9,   -0.8,   -0.7,   -0.6,   -0.5,   -0.4,   -0.5,   -0.6,  999.0,  999.0,  999.0,  999.0,  999.0,  999.0,  999.0,  999.0,  999.0,  999.0,  999.0,  999.0,  999.0,  999.0,  999.0,  999.0,  999.0,  999.0,  999.0,  999.0,  999.0,  999.0,  999.0,  999.0,  999.0,  999.0
2011/04/17 07:50,    0.0,    0.0,    0.0,    0.1,    0.0,   -0.1,   -0.1,    0.0,    0.0,   -0.0,   -0.1,   -0.1,   -0.1,   -0.1,   -0.0,   -0.1,   -0.0,   -0.0,    0.0,    0.1,    0.1,    0.1,   -0.0,   -0.0,   -0.0,    0.0,    0.0,    0.0,   -0.0,    0.1,    0.1,    0.2,    0.2,  999.0,  999.0,  999.0,  999.0,   -0.2,   -0.2,   -0.1,   -0.2,   -0.2,   -0.2,  999.0,  999.0,  999.0,  999.0,  999.0,  999.0,  999.0,  999.0,  999.0,  999.0,  999.0,  999.0,  999.0,  999.0,  999.0,  999.0,  999.0,   -0.8,   -0.8,   -0.9,   -0.9,   -0.8,   -0.7,   -0.6,   -0.5,   -0.4,   -0.3,   -0.3,  999.0,  999.0,  999.0,  999.0,  999.0,  999.0,  999.0,  999.0,   -0.6,  999.0,  999.0,  999.0,  999.0,  999.0,  999.0,  999.0,  999.0,  999.0,  999.0,   -0.1,  999.0,  999.0,  999.0,  999.0,  999.0,  999.0,  999.0
2011/04/17 08:00,   -0.1,    0.0,   -0.0,    0.0,    0.1,    0.0,   -0.0,   -0.1,   -0.1,   -0.1,   -0.0,   -0.1,   -0.1,   -0.1,   -0.0,    0.0,   -0.0,    0.0,   -0.1,   -0.1,   -0.1,   -0.1,   -0.2,   -0.1,   -0.1,   -0.1,   -0.1,   -0.2,   -0.1,   -0.1,   -0.2,   -0.2,   -0.3,  999.0,  999.0,  999.0,   -0.1,    0.1,   -0.1,   -0.0,    0.0,   -0.0,  999.0,  999.0,   -0.0,  999.0,  999.0,  999.0,  999.0,  999.0,  999.0,  999.0,  999.0,  999.0,    0.0,  999.0,  999.0,  999.0,  999.0,  999.0,   -0.6,   -0.6,   -0.6,   -0.6,   -0.7,   -0.8,   -0.8,   -0.6,   -0.5,   -0.4,   -0.3,  999.0,  999.0,  999.0,  999.0,  999.0,  999.0,  999.0,  999.0,  999.0,  999.0,  999.0,  999.0,  999.0,  999.0,  999.0,  999.0,  999.0,  999.0,  999.0,  999.0,  999.0,  999.0,  999.0,  999.0,  999.0,  999.0,  999.0
2011/04/17 08:10,  999.0,   -0.3,    0.2,    0.0,   -0.0,   -0.1,    0.1,   -0.2,    0.1,    0.1,    0.0,   -0.1,    0.0,   -0.0,    0.0,   -0.1,   -0.1,   -0.1,   -0.1,   -0.1,   -0.1,   -0.0,   -0.0,   -0.0,    0.1,    0.1,    0.0,   -0.0,   -0.0,   -0.1,   -0.1,   -0.2,  999.0,  999.0,  999.0,    0.1,  999.0,  999.0,  999.0,  999.0,    0.1,    0.1,  999.0,  999.0,  999.0,  999.0,  999.0,  999.0,  999.0,  999.0,  999.0,  999.0,  999.0,  999.0,  999.0,  999.0,  999.0,  999.0,  999.0,  999.0,   -0.8,   -0.7,   -0.7,   -0.8,   -0.8,   -0.9,   -0.8,   -0.8,   -0.7,   -0.5,   -0.2,   -0.2,  999.0,  999.0,  999.0,  999.0,  999.0,  999.0,  999.0,  999.0,  999.0,  999.0,  999.0,  999.0,  999.0,  999.0,  999.0,  999.0,  999.0,  999.0,  999.0,  999.0,  999.0,  999.0,  999.0,  999.0,  999.0,  999.0
2011/04/17 08:20,  999.0,  999.0,  999.0,    0.0,   -0.1,   -0.1,   -0.1,   -0.1,   -0.2,   -0.1,   -0.1,   -0.1,    0.1,   -0.1,   -0.0,   -0.1,   -0.1,   -0.1,   -0.1,   -0.1,   -0.1,   -0.2,   -0.2,   -0.3,   -0.2,   -0.2,   -0.2,   -0.1,   -0.0,   -0.0,   -0.0,   -0.2,  999.0,  999.0,    0.0,    0.0,    0.2,    0.1,    0.0,    0.2,    0.2,    0.0,  999.0,  999.0,  999.0,  999.0,  999.0,  999.0,  999.0,  999.0,  999.0,  999.0,  999.0,  999.0,  999.0,  999.0,  999.0,  999.0,  999.0,  999.0,   -0.9,   -0.5,   -0.6,   -0.6,   -0.6,   -0.6,   -0.8,   -0.9,   -0.9,   -0.8,   -0.5,   -0.3,  999.0,  999.0,  999.0,  999.0,  999.0,  999.0,  999.0,  999.0,  999.0,  999.0,  999.0,  999.0,  999.0,  999.0,  999.0,   -0.9,   -0.9,   -0.8,   -0.8,  999.0,  999.0,  999.0,  999.0,  999.0,  999.0,  999.0
2011/04/17 08:30,    0.1,   -0.0,    0.1,    0.0,   -0.1,   -0.1,  999.0,   -0.1,  999.0,   -0.0,    0.1,    0.1,    0.1,   -0.1,    0.0,    0.1,    0.1,    0.1,    0.1,    0.1,    0.1,    0.0,    0.0,   -0.0,   -0.1,   -0.1,   -0.0,   -0.0,   -0.0,   -0.1,   -0.1,   -0.0,  999.0,  999.0,   -0.2,   -0.2,   -0.2,   -0.1,   -0.2,   -0.2,   -0.1,   -0.1,  999.0,   -0.1,   -0.0,    0.0,  999.0,  999.0,  999.0,  999.0,  999.0,  999.0,  999.0,   -0.1,  999.0,  999.0,  999.0,  999.0,  999.0,  999.0,  999.0,  999.0,  999.0,  999.0,   -0.4,   -0.5,   -0.7,   -0.8,   -0.8,   -0.7,   -0.4,   -0.1,  999.0,  999.0,  999.0,  999.0,  999.0,  999.0,  999.0,  999.0,  999.0,  999.0,  999.0,  999.0,  999.0,   -0.7,  999.0,  999.0,  999.0,  999.0,  999.0,  999.0,  999.0,  999.0,  999.0,  999.0,  999.0,  999.0
2011/04/17 08:40,    0.1,    0.1,    0.0,    0.1,    0.1,    0.1,    0.2,   -0.1,   -0.0,    0.0,   -0.0,   -0.1,   -0.0,   -0.1,    0.0,   -0.1,   -0.1,   -0.0,   -0.1,    0.1,    0.1,    0.1,    0.1,    0.2,    0.2,    0.1,    0.1,    0.1,    0.0,   -0.0,   -0.0,  999.0,  999.0,   -0.1,   -0.1,    0.0,    0.0,    0.0,    0.1,    0.1,    0.1,    0.1,  999.0,  999.0,    0.1,  999.0,  999.0,  999.0,  999.0,  999.0,  999.0,  999.0,  999.0,   -0.2,  999.0,  999.0,  999.0,  999.0,  999.0,  999.0,  999.0,  999.0,  999.0,  999.0,  999.0,   -0.7,   -0.7,   -0.7,   -0.7,   -0.6,   -0.5,   -0.2,  999.0,  999.0,  999.0,  999.0,  999.0,  999.0,  999.0,  999.0,  999.0,  999.0,  999.0,  999.0,  999.0,  999.0,  999.0,  999.0,  999.0,  999.0,  999.0,  999.0,  999.0,  999.0,  999.0,  999.0,  999.0,  999.0
2011/04/17 08:50,  999.0,   -0.2,   -0.1,    0.0,    0.1,    0.1,    0.1,   -0.1,   -0.1,   -0.2,   -0.1,   -0.3,   -0.2,   -0.3,   -0.0,   -0.0,    0.0,   -0.0,    0.1,    0.1,    0.0,   -0.0,   -0.0,   -0.0,    0.0,   -0.1,   -0.0,   -0.1,   -0.0,   -0.0,    0.0,  999.0,   -0.0,  999.0,   -0.1,    0.1,  999.0,   -0.1,   -0.0,    0.4,    0.1,    0.1,    0.1,  999.0,    0.2,    0.1,  999.0,  999.0,  999.0,  999.0,  999.0,  999.0,   -0.1,   -0.0,  999.0,  999.0,  999.0,  999.0,  999.0,  999.0,  999.0,  999.0,  999.0,  999.0,   -0.4,   -0.5,   -0.5,   -0.6,   -0.5,   -0.6,   -0.4,   -0.4,  999.0,  999.0,  999.0,  999.0,  999.0,  999.0,  999.0,  999.0,  999.0,  999.0,  999.0,  999.0,  999.0,  999.0,  999.0,  999.0,  999.0,  999.0,  999.0,  999.0,  999.0,  999.0,  999.0,  999.0,  999.0,  999.0
2011/04/17 09:00,  999.0,  999.0,  999.0,    0.1,    0.2,   -0.1,    0.1,   -0.1,    0.5,   -0.0,    0.3,   -0.2,    0.0,   -0.1,    0.1,   -0.2,   -0.1,   -0.0,   -0.0,   -0.1,    0.1,    0.0,   -0.0,    0.0,   -0.1,   -0.1,   -0.0,    0.1,    0.0,   -0.1,  999.0,  999.0,  999.0,  999.0,  999.0,  999.0,   -0.1,   -0.1,  999.0,  999.0,  999.0,  999.0,    0.1,   -0.0,  999.0,  999.0,    0.0,  999.0,  999.0,  999.0,  999.0,  999.0,  999.0,  999.0,  999.0,  999.0,  999.0,  999.0,  999.0,  999.0,   -0.7,   -0.7,   -0.7,   -0.7,   -0.8,   -0.9,   -0.8,   -0.8,   -0.7,   -0.8,   -0.5,   -0.7,  999.0,  999.0,  999.0,  999.0,  999.0,  999.0,  999.0,  999.0,  999.0,  999.0,  999.0,  999.0,  999.0,  999.0,  999.0,  999.0,  999.0,  999.0,  999.0,  999.0,  999.0,  999.0,  999.0,  999.0,  999.0,  999.0
2011/04/17 09:10,   -0.4,   -0.3,   -0.0,    0.0,    0.1,   -0.1,    0.0,   -0.0,   -0.1,   -0.1,   -0.2,    0.0,   -0.0,   -0.1,   -0.0,   -0.1,   -0.1,   -0.1,   -0.1,   -0.1,   -0.0,   -0.1,   -0.1,   -0.1,   -0.1,   -0.1,   -0.1,   -0.0,  999.0,  999.0,    0.0,    0.0,  999.0,  999.0,  999.0,   -0.1,   -0.1,   -0.0,  999.0,    0.0,   -0.0,   -0.0,   -0.2,   -0.2,  999.0,    0.0,   -0.0,  999.0,  999.0,  999.0,  999.0,  999.0,  999.0,   -0.0,  999.0,  999.0,  999.0,  999.0,  999.0,   -0.5,   -0.5,   -0.5,   -0.5,   -0.6,   -0.7,   -0.7,   -0.7,   -0.7,   -0.7,   -0.7,   -0.7,   -0.6,   -0.5,  999.0,   -0.6,  999.0,  999.0,  999.0,  999.0,  999.0,  999.0,  999.0,  999.0,  999.0,  999.0,  999.0,  999.0,  999.0,  999.0,  999.0,  999.0,  999.0,  999.0,  999.0,  999.0,  999.0,  999.0,  999.0
2011/04/17 09:20,    0.0,   -0.1,    0.1,    0.3,   -0.0,   -0.1,   -0.2,   -0.1,   -0.1,    0.0,    0.2,    0.4,    0.3,    0.3,    0.2,    0.2,    0.2,    0.1,    0.1,   -0.0,   -0.1,   -0.1,   -0.1,   -0.1,   -0.1,   -0.1,   -0.1,   -0.0,  999.0,  999.0,    0.0,   -0.1,   -0.0,   -0.0,   -0.0,   -0.0,   -0.0,   -0.1,    0.0,    0.1,    0.1,    0.1,    0.2,    0.2,    0.1,    0.2,    0.2,    0.2,  999.0,  999.0,  999.0,  999.0,  999.0,   -0.1,   -0.2,  999.0,  999.0,   -1.0,   -0.8,   -0.8,   -0.8,   -0.8,   -0.8,   -0.8,   -0.8,   -0.7,   -0.7,   -0.7,   -0.6,   -0.6,   -0.6,   -0.6,  999.0,  999.0,  999.0,  999.0,  999.0,  999.0,  999.0,  999.0,  999.0,  999.0,  999.0,  999.0,  999.0,  999.0,  999.0,  999.0,  999.0,  999.0,  999.0,  999.0,  999.0,  999.0,  999.0,  999.0,  999.0,  999.0
2011/04/17 09:30,    0.0,    0.0,   -0.1,    0.2,   -0.0,    0.0,   -0.1,    0.0,   -0.1,    0.0,    0.1,    0.1,    0.2,    0.2,    0.1,    0.0,    0.1,    0.1,   -0.0,    0.1,   -0.0,    0.0,    0.0,    0.0,    0.0,    0.2,    0.2,    0.1,    0.2,    0.2,    0.1,  999.0,    0.0,    0.1,   -0.0,   -0.1,   -0.0,   -0.1,   -0.1,  999.0,    0.1,   -0.0,    0.0,   -0.1,   -0.0,  999.0,   -0.0,    0.0,  999.0,  999.0,  999.0,  999.0,  999.0,  999.0,  999.0,  999.0,  999.0,  999.0,   -0.6,   -0.6,   -0.5,   -0.5,   -0.6,   -0.6,   -0.6,   -0.7,   -0.6,   -0.6,   -0.7,   -0.8,   -0.8,   -0.7,   -0.6,   -0.5,   -0.5,  999.0,  999.0,  999.0,  999.0,  999.0,  999.0,  999.0,  999.0,  999.0,  999.0,  999.0,  999.0,  999.0,   -0.7,  999.0,  999.0,  999.0,  999.0,  999.0,  999.0,  999.0,  999.0,  999.0
2011/04/17 09:40,   -0.0,   -0.2,   -0.1,   -0.1,   -0.2,   -0.1,   -0.2,   -0.0,   -0.0,    0.0,    0.0,    0.1,    0.0,    0.1,   -0.0,   -0.4,   -0.3,   -0.2,   -0.1,    0.0,    0.2,    0.2,    0.1,   -0.0,   -0.1,   -0.3,   -0.2,   -0.3,   -0.2,   -0.0,  999.0,  999.0,   -0.0,   -0.0,   -0.0,    0.0,   -0.0,  999.0,  999.0,  999.0,    0.1,    0.3,    0.1,   -0.0,    0.1,  999.0,  999.0,    0.2,  999.0,  999.0,  999.0,  999.0,  999.0,  999.0,  999.0,  999.0,  999.0,  999.0,  999.0,  999.0,  999.0,   -0.8,   -0.9,   -0.7,   -0.8,   -0.6,   -0.7,   -0.8,   -0.9,   -0.9,   -0.9,   -0.7,   -0.6,  999.0,  999.0,  999.0,  999.0,  999.0,  999.0,  999.0,  999.0,  999.0,  999.0,  999.0,  999.0,  999.0,  999.0,  999.0,  999.0,  999.0,  999.0,  999.0,  999.0,  999.0,  999.0,  999.0,  999.0,  999.0
2011/04/17 09:50,    0.1,   -0.0,   -0.2,   -0.1,   -0.2,   -0.2,   -0.2,    0.1,   -0.1,   -0.2,   -0.2,   -0.4,   -0.4,   -0.6,   -0.3,   -0.2,   -0.0,    0.0,    0.0,    0.0,    0.0,    0.1,   -0.0,   -0.2,  999.0,   -0.2,    0.1,    0.1,    0.1,    0.1,   -0.1,   -0.0,   -0.0,    0.0,    0.1,   -0.0,    0.3,  999.0,  999.0,   -0.0,    0.2,   -0.1,    0.2,    0.1,    0.0,    0.1,  999.0,  999.0,  999.0,  999.0,  999.0,  999.0,  999.0,  999.0,  999.0,  999.0,  999.0,  999.0,  999.0,  999.0,  999.0,  999.0,  999.0,  999.0,  999.0,  999.0,  999.0,  999.0,  999.0,  999.0,  999.0,  999.0,  999.0,  999.0,  999.0,  999.0,  999.0,  999.0,  999.0,  999.0,  999.0,  999.0,  999.0,  999.0,  999.0,  999.0,  999.0,  999.0,  999.0,  999.0,  999.0,  999.0,  999.0,  999.0,  999.0,  999.0,  999.0,  999.0
2011/04/17 10:00,   -0.0,   -0.2,   -0.1,   -0.2,   -0.2,   -0.1,   -0.2,   -0.2,   -0.2,   -0.1,   -0.8,   -0.5,   -0.0,   -0.7,   -1.1,  999.0,   -0.2,   -0.4,   -0.2,   -0.3,   -0.1,   -0.2,   -0.1,   -0.0,    0.0,   -0.1,   -0.1,    0.0,    0.1,    0.0,    0.0,   -0.0,   -0.1,   -0.1,  999.0,   -0.1,  999.0,   -0.2,   -0.2,   -0.2,  999.0,   -0.2,   -0.1,   -0.1,   -0.1,   -0.0,  999.0,  999.0,  999.0,  999.0,  999.0,  999.0,  999.0,  999.0,  999.0,  999.0,  999.0,  999.0,  999.0,  999.0,  999.0,  999.0,  999.0,  999.0,  999.0,  999.0,  999.0,  999.0,  999.0,  999.0,  999.0,  999.0,  999.0,  999.0,  999.0,  999.0,  999.0,  999.0,  999.0,  999.0,  999.0,  999.0,  999.0,  999.0,  999.0,  999.0,  999.0,  999.0,  999.0,  999.0,  999.0,  999.0,  999.0,  999.0,  999.0,  999.0,  999.0,  999.0
2011/04/17 10:10,   -0.1,    0.0,   -0.0,    0.3,    0.0,    0.1,    0.0,   -0.1,   -0.1,   -0.0,   -0.0,    0.1,    0.2,    0.3,    0.4,    0.4,    0.3,    0.2,    0.2,    0.1,    0.1,    0.0,    0.0,   -0.0,  999.0,    0.0,    0.0,    0.0,    0.1,    0.1,    0.1,   -0.1,  999.0,    0.2,  999.0,  999.0,  999.0,  999.0,   -0.2,    0.0,  999.0,  999.0,  999.0,    0.1,  999.0,  999.0,  999.0,  999.0,  999.0,  999.0,  999.0,  999.0,  999.0,  999.0,  999.0,  999.0,  999.0,  999.0,  999.0,  999.0,  999.0,  999.0,  999.0,  999.0,  999.0,  999.0,  999.0,  999.0,  999.0,  999.0,  999.0,  999.0,  999.0,  999.0,  999.0,  999.0,  999.0,  999.0,  999.0,  999.0,  999.0,  999.0,  999.0,  999.0,  999.0,  999.0,  999.0,  999.0,  999.0,  999.0,  999.0,  999.0,  999.0,    0.2,  999.0,  999.0,  999.0,  999.0
2011/04/17 10:20,   -0.2,   -0.3,   -0.3,   -0.2,   -0.0,   -0.0,    0.0,    0.1,   -0.1,   -0.0,   -0.1,    0.0,    0.1,    0.0,    0.1,    0.1,    0.1,    0.1,    0.0,    0.1,    0.2,   -0.0,   -0.2,   -0.1,   -0.2,   -0.1,   -0.0,    0.1,    0.2,    0.2,    0.2,    0.2,    0.3,    0.2,    0.2,   -0.0,  999.0,   -0.1,    0.3,    0.1,    0.2,    0.1,    0.3,    0.0,  999.0,  999.0,    0.0,  999.0,   -0.0,  999.0,  999.0,  999.0,  999.0,  999.0,  999.0,  999.0,  999.0,  999.0,  999.0,  999.0,  999.0,  999.0,  999.0,  999.0,  999.0,  999.0,  999.0,  999.0,  999.0,  999.0,  999.0,  999.0,  999.0,  999.0,  999.0,  999.0,  999.0,  999.0,  999.0,  999.0,  999.0,  999.0,   -0.1,  999.0,  999.0,  999.0,  999.0,  999.0,  999.0,    0.1,  999.0,  999.0,  999.0,  999.0,  999.0,  999.0,  999.0,  999.0
2011/04/17 10:30,   -0.1,    0.1,   -0.1,   -0.4,   -0.4,   -0.3,   -0.3,   -0.4,   -0.4,   -0.4,   -0.5,   -0.4,   -0.7,   -0.4,    0.2,   -0.1,   -0.3,   -0.1,    0.1,    0.1,    0.0,    0.1,    0.0,   -0.1,   -0.4,   -0.3,   -0.3,   -0.3,  999.0,   -0.2,   -0.2,   -0.3,   -0.3,   -0.1,   -0.1,   -0.2,  999.0,   -0.1,   -0.2,   -0.2,   -0.2,   -0.2,  999.0,   -0.1,  999.0,    0.1,  999.0,  999.0,  999.0,  999.0,  999.0,  999.0,  999.0,  999.0,    0.1,  999.0,  999.0,  999.0,  999.0,  999.0,  999.0,  999.0,  999.0,  999.0,  999.0,  999.0,  999.0,  999.0,  999.0,  999.0,  999.0,  999.0,  999.0,  999.0,  999.0,  999.0,  999.0,  999.0,  999.0,  999.0,  999.0,  999.0,  999.0,  999.0,  999.0,  999.0,  999.0,  999.0,  999.0,  999.0,  999.0,  999.0,  999.0,  999.0,  999.0,  999.0,  999.0,  999.0
2011/04/17 10:40,    0.0,    0.2,   -0.2,   -0.1,    0.1,   -0.1,   -0.2,   -0.2,   -0.1,   -0.4,   -0.6,   -0.8,   -0.7,   -0.6,   -0.4,   -0.3,   -0.8,   -0.4,   -0.4,   -0.2,   -0.0,   -0.0,    0.2,   -0.0,   -0.1,   -0.1,   -0.1,   -0.2,    0.0,    0.1,    0.1,    0.1,    0.1,   -0.0,   -0.1,   -0.2,   -0.0,  999.0,  999.0,   -0.0,   -0.2,   -0.1,  999.0,   -0.0,  999.0,  999.0,  999.0,  999.0,  999.0,  999.0,    0.2,  999.0,  999.0,  999.0,  999.0,  999.0,  999.0,  999.0,  999.0,  999.0,  999.0,  999.0,  999.0,  999.0,  999.0,  999.0,  999.0,  999.0,  999.0,  999.0,  999.0,  999.0,  999.0,  999.0,  999.0,  999.0,  999.0,  999.0,  999.0,  999.0,  999.0,  999.0,  999.0,  999.0,  999.0,  999.0,  999.0,  999.0,  999.0,  999.0,  999.0,  999.0,  999.0,  999.0,  999.0,  999.0,  999.0,  999.0
2011/04/17 10:50,   -0.3,    0.1,    0.2,    0.5,    0.5,    0.6,    0.9,    0.9,    0.9,    0.6,    0.7,    0.3,    0.3,    0.2,   -0.5,   -0.2,   -0.2,   -0.3,   -0.2,    0.4,    0.3,    0.1,    0.4,   -0.3,    0.1,    0.2,   -0.1,   -0.2,   -0.1,   -0.0,    0.2,  999.0,   -0.0,   -0.2,   -0.1,    0.2,  999.0,   -0.4,    0.2,   -0.0,    0.0,    0.0,    0.0,    0.0,    0.3,  999.0,  999.0,  999.0,  999.0,  999.0,  999.0,  999.0,  999.0,   -0.1,  999.0,  999.0,  999.0,  999.0,  999.0,  999.0,  999.0,  999.0,  999.0,  999.0,  999.0,  999.0,  999.0,  999.0,  999.0,  999.0,  999.0,  999.0,  999.0,  999.0,  999.0,  999.0,  999.0,  999.0,  999.0,  999.0,  999.0,  999.0,  999.0,  999.0,  999.0,  999.0,  999.0,  999.0,  999.0,  999.0,  999.0,  999.0,  999.0,  999.0,  999.0,  999.0,  999.0,  999.0
2011/04/17 11:00,   -3.2,   -4.0,   -0.5,   -0.6,   -0.6,   -0.6,   -0.7,   -0.5,   -0.5,   -0.7,   -0.9,   -0.6,   -0.6,   -0.8,   -0.5,   -0.4,   -0.8,    0.1,   -1.4,   -0.8,   -0.9,   -0.7,   -0.9,   -1.2,   -0.5,   -0.3,   -0.4,   -0.7,   -0.1,    0.1,   -0.6,   -0.5,   -0.2,    0.3,    0.4,    0.6,   -0.0,    0.2,    0.2,    0.1,    0.0,   -0.0,   -0.1,    0.0,    0.2,   -0.2,  999.0,   -0.0,  999.0,  999.0,  999.0,  999.0,  999.0,  999.0,  999.0,  999.0,  999.0,  999.0,  999.0,  999.0,  999.0,  999.0,  999.0,  999.0,  999.0,  999.0,  999.0,  999.0,  999.0,  999.0,  999.0,  999.0,  999.0,  999.0,  999.0,  999.0,  999.0,  999.0,  999.0,  999.0,  999.0,  999.0,  999.0,  999.0,  999.0,  999.0,  999.0,  999.0,  999.0,  999.0,  999.0,  999.0,  999.0,  999.0,  999.0,  999.0,  999.0,  999.0
2011/04/17 11:10,   -0.0,   -0.1,   -0.1,    0.0,    0.1,    0.2,    0.2,    0.2,    0.2,    0.3,    0.5,    0.4,    0.3,    0.1,   -0.1,   -0.2,    0.3,    0.5,    0.2,    0.3,    0.3,    0.2,    0.3,    0.4,    0.6,   -0.0,   -0.1,    0.3,   -0.2,   -0.2,   -0.2,    0.0,    0.2,    0.1,   -0.0,   -0.1,    0.0,   -0.2,   -0.2,   -0.6,   -0.5,   -0.4,   -0.4,   -0.5,   -0.6,   -0.9,   -1.1,   -1.6,   -1.7,   -0.6,  999.0,  999.0,  999.0,  999.0,  999.0,  999.0,  999.0,  999.0,  999.0,  999.0,  999.0,  999.0,  999.0,  999.0,  999.0,  999.0,  999.0,  999.0,  999.0,  999.0,  999.0,  999.0,  999.0,  999.0,  999.0,  999.0,  999.0,  999.0,  999.0,  999.0,  999.0,  999.0,  999.0,  999.0,  999.0,  999.0,  999.0,  999.0,  999.0,  999.0,  999.0,  999.0,  999.0,  999.0,  999.0,  999.0,  999.0,  999.0
2011/04/17 11:20,    0.2,   -0.2,   -0.0,    0.1,    0.4,    0.3,    0.2,    0.3,    0.3,    0.3,    0.2,    0.2,    0.2,    0.2,    0.1,    0.1,    0.1,   -0.0,    0.2,    0.2,    0.2,    0.4,    0.5,    0.5,    0.5,    0.4,    0.2,    0.3,    0.2,    0.2,    0.1,   -0.3,   -0.2,    0.1,    0.1,    0.2,    0.2,    0.3,    0.4,    0.2,    0.3,    0.3,    0.3,    0.3,    0.2,   -0.1,   -0.2,   -0.5,   -0.5,   -0.6,   -0.1,  999.0,   -0.2,  999.0,  999.0,  999.0,  999.0,  999.0,  999.0,  999.0,  999.0,  999.0,  999.0,  999.0,  999.0,  999.0,  999.0,  999.0,  999.0,  999.0,  999.0,  999.0,  999.0,  999.0,  999.0,  999.0,   -0.6,  999.0,  999.0,  999.0,  999.0,  999.0,  999.0,  999.0,  999.0,  999.0,  999.0,  999.0,  999.0,   -0.3,  999.0,  999.0,  999.0,  999.0,  999.0,  999.0,  999.0,  999.0
2011/04/17 11:30,   -0.0,   -0.2,   -0.1,   -0.3,   -0.1,    0.1,    0.1,    0.0,   -0.2,   -0.1,   -0.1,    0.1,   -0.1,    0.1,    0.1,   -0.1,   -0.1,   -0.3,   -0.3,   -0.1,   -0.2,   -0.2,    0.0,    0.1,    0.1,    0.0,    0.1,    0.2,    0.2,    0.2,    0.4,    0.5,    0.4,    0.2,    0.2,    0.2,    0.2,    0.6,    0.3,    0.3,    0.3,    0.1,    0.1,    0.2,    0.1,    0.1,    0.1,    0.0,   -0.0,   -0.1,  999.0,  999.0,  999.0,  999.0,  999.0,  999.0,  999.0,  999.0,  999.0,  999.0,  999.0,  999.0,  999.0,  999.0,  999.0,  999.0,  999.0,  999.0,  999.0,  999.0,   -0.1,  999.0,  999.0,  999.0,  999.0,  999.0,  999.0,  999.0,  999.0,  999.0,  999.0,  999.0,  999.0,  999.0,  999.0,  999.0,  999.0,  999.0,  999.0,  999.0,  999.0,  999.0,  999.0,  999.0,  999.0,  999.0,  999.0,  999.0
2011/04/17 11:40,    0.0,   -0.1,    0.0,   -0.2,   -0.3,   -0.1,    0.1,    0.1,    0.2,    0.2,    0.3,    0.3,    0.2,    0.2,   -0.0,   -0.0,   -0.0,   -0.2,   -0.2,   -0.3,   -0.3,   -0.1,   -0.0,   -0.2,   -0.3,   -0.0,   -0.1,   -0.2,   -0.3,   -0.3,   -0.3,   -0.2,   -0.2,   -0.2,   -0.2,   -0.1,   -0.1,    0.1,    0.1,    0.0,    0.0,   -0.2,   -0.1,    0.0,    0.0,    0.1,    0.0,   -0.0,    0.1,    0.1,  999.0,  999.0,  999.0,  999.0,  999.0,  999.0,  999.0,  999.0,  999.0,  999.0,  999.0,  999.0,  999.0,  999.0,  999.0,  999.0,  999.0,  999.0,  999.0,  999.0,  999.0,  999.0,  999.0,  999.0,   -0.2,  999.0,  999.0,   -0.1,  999.0,   -0.6,  999.0,  999.0,  999.0,  999.0,  999.0,  999.0,  999.0,  999.0,  999.0,  999.0,  999.0,  999.0,  999.0,  999.0,  999.0,  999.0,  999.0,  999.0
2011/04/17 11:50,   -0.0,   -0.0,   -0.0,   -0.4,   -0.5,   -0.3,   -0.1,   -0.0,    0.1,    0.0,   -0.0,   -0.1,   -0.1,   -0.3,   -0.3,   -0.0,   -0.1,    0.0,    0.0,    0.0,   -0.1,   -0.1,   -0.0,   -0.1,   -0.1,   -0.0,   -0.0,   -0.0,    0.0,   -0.0,    0.0,    0.0,    0.1,    0.1,    0.2,  999.0,    0.2,    0.3,    0.2,    0.2,    0.2,    0.4,    0.1,    0.1,    0.0,   -0.0,    0.1,   -0.2,    0.2,    0.2,    0.0,  999.0,  999.0,  999.0,  999.0,  999.0,  999.0,  999.0,  999.0,  999.0,  999.0,  999.0,  999.0,  999.0,  999.0,  999.0,  999.0,  999.0,  999.0,  999.0,  999.0,  999.0,  999.0,   -0.5,  999.0,  999.0,  999.0,   -0.4,  999.0,  999.0,  999.0,  999.0,  999.0,  999.0,  999.0,  999.0,  999.0,  999.0,  999.0,  999.0,  999.0,  999.0,  999.0,  999.0,  999.0,  999.0,  999.0,  999.0
2011/04/17 12:00,   -0.1,   -0.0,   -0.0,   -0.1,    0.2,    0.2,    0.2,    0.0,   -0.1,   -0.3,   -0.4,   -0.5,   -0.6,   -0.1,   -0.3,   -0.3,   -0.2,   -0.2,   -0.3,   -0.3,   -0.2,   -0.2,   -0.1,   -0.1,   -0.1,   -0.1,   -0.1,   -0.1,   -0.1,   -0.1,    0.0,   -0.1,   -0.0,    0.0,  999.0,  999.0,    0.4,    0.2,    0.2,    0.3,    0.3,    0.2,    0.3,    0.1,    0.1,   -0.3,  999.0,  999.0,  999.0,  999.0,  999.0,  999.0,  999.0,  999.0,  999.0,  999.0,  999.0,  999.0,  999.0,  999.0,  999.0,  999.0,  999.0,  999.0,  999.0,  999.0,  999.0,  999.0,  999.0,  999.0,  999.0,  999.0,  999.0,  999.0,  999.0,  999.0,  999.0,  999.0,  999.0,  999.0,  999.0,  999.0,  999.0,  999.0,  999.0,  999.0,  999.0,  999.0,  999.0,  999.0,  999.0,  999.0,  999.0,  999.0,  999.0,  999.0,  999.0,  999.0
2011/04/17 12:10,   -0.2,    0.5,    0.2,  999.0,    0.3,    0.1,    0.1,    0.3,    0.2,    0.3,    0.5,    0.3,    0.2,    0.1,    0.0,    0.1,   -0.0,   -0.1,   -0.1,   -0.1,   -0.1,   -0.0,    0.0,   -0.0,   -0.1,   -0.0,    0.0,   -0.1,   -0.0,  999.0,   -0.5,  999.0,  999.0,  999.0,  999.0,  999.0,  999.0,  999.0,  999.0,   -1.4,  999.0,   -2.1,  999.0,  999.0,  999.0,   -0.9,  999.0,   -1.4,   -2.1,  999.0,  999.0,  999.0,  999.0,  999.0,  999.0,  999.0,  999.0,  999.0,  999.0,  999.0,  999.0,  999.0,  999.0,  999.0,  999.0,  999.0,  999.0,  999.0,  999.0,  999.0,  999.0,  999.0,  999.0,  999.0,  999.0,  999.0,  999.0,  999.0,   -1.3,   -1.1,   -0.2,   -0.1,    0.4,    1.0,    0.3,   -0.0,  999.0,  999.0,  999.0,   -0.2,   -0.0,  999.0,  999.0,  999.0,  999.0,  999.0,  999.0,  999.0
2011/04/17 12:20,    0.0,   -0.1,   -0.1,   -0.0,   -0.1,    0.2,   -0.0,    0.2,    0.2,    0.1,   -0.1,    0.1,    0.2,   -0.1,   -0.0,   -0.1,   -0.4,    0.1,    0.0,   -0.2,   -0.6,   -0.0,   -0.1,    0.2,    0.0,   -0.2,   -0.1,   -0.1,   -0.1,   -0.2,   -0.3,  999.0,   -0.3,  999.0,  999.0,  999.0,  999.0,   -0.1,   -0.2,  999.0,  999.0,  999.0,   -4.2,   -4.2,   -3.9,   -3.7,   -3.5,   -3.6,   -3.4,   -3.3,   -3.3,   -3.2,   -3.2,   -3.2,   -3.2,   -3.0,   -3.0,   -2.9,   -3.0,   -3.0,   -2.9,   -2.9,   -2.7,   -2.8,   -2.7,   -2.6,   -2.5,   -2.5,   -2.4,   -2.3,   -2.2,   -2.1,   -2.0,   -1.8,   -1.6,   -1.0,   -0.8,   -0.6,   -0.4,   -0.1,    0.1,    0.2,    0.4,    0.4,    0.5,  999.0,  999.0,  999.0,  999.0,  999.0,  999.0,  999.0,  999.0,  999.0,  999.0,  999.0,  999.0,  999.0
2011/04/17 12:30,    0.2,    0.0,   -0.0,    0.2,    0.2,    0.2,    0.1,    0.3,    0.3,    0.3,    0.5,    0.3,    0.4,    0.2,    0.1,   -0.1,    0.1,    0.3,    0.5,    0.5,    0.5,    0.5,    0.3,    0.2,   -0.0,   -0.2,   -0.1,   -0.1,    0.1,    0.1,  999.0,  999.0,  999.0,  999.0,  999.0,   -0.3,   -0.6,  999.0,  999.0,   -0.3,  999.0,   -0.4,  999.0,   -0.4,   -0.4,  999.0,  999.0,   -2.6,   -2.5,   -2.5,   -2.5,   -2.5,   -2.4,   -2.4,   -2.9,   -2.9,   -2.9,   -2.6,   -3.5,   -2.5,   -2.0,   -1.9,   -1.7,   -2.6,   -2.5,   -2.7,   -2.7,   -2.5,   -2.5,   -2.2,   -2.1,   -2.0,   -1.9,   -2.0,   -2.0,   -2.0,   -1.5,  999.0,  999.0,  999.0,  999.0,  999.0,  999.0,  999.0,  999.0,   -5.4,   -5.4,   -5.5,   -5.4,   -5.5,   -5.3,   -5.2,   -5.0,   -5.0,   -5.0,   -4.7,   -4.5,   -4.2
2011/04/17 12:40,   -2.0,   -2.7,   -2.4,   -3.1,   -2.3,   -0.1,   -0.2,   -1.0,   -0.1,   -0.2,   -0.6,   -0.7,   -0.1,   -0.0,    0.1,    0.1,   -0.1,    0.0,   -0.0,   -0.0,    0.1,    0.2,   -0.1,   -1.1,   -1.3,   -2.0,   -2.8,   -3.2,   -2.6,   -3.3,   -3.1,   -6.6,  999.0,  999.0,  999.0,  999.0,  999.0,  999.0,   -6.3,   -5.9,   -5.4,   -5.5,   -5.5,   -5.6,   -5.5,   -5.8,   -5.9,   -5.8,   -5.7,   -2.9,  999.0,   -3.7,   -3.8,   -2.7,   -5.3,   -5.3,   -5.3,   -5.4,   -5.2,   -5.1,   -4.9,   -4.6,  999.0,   -5.0,   -4.9,   -4.8,   -4.4,   -4.5,   -4.6,   -4.4,   -4.5,   -4.4,   -4.5,   -4.3,   -4.7,   -4.6,   -4.5,   -4.5,   -4.0,   -4.5,   -4.6,   -4.6,   -4.9,   -4.3,   -4.2,   -4.0,   -3.7,   -3.1,   -3.3,   -3.3,   -3.2,   -3.4,   -3.6,   -4.5,   -3.9,   -3.8,   -3.4,   -3.2
2011/04/17 12:50,   -3.2,   -3.6,   -4.2,   -4.3,   -4.2,   -4.1,   -5.6,   -5.6,   -5.5,   -5.4,   -5.2,   -4.7,   -5.1,   -5.1,   -4.1,   -5.0,   -4.7,   -6.0,   -6.1,   -6.1,   -6.3,   -6.2,   -6.3,   -6.3,   -6.4,   -6.5,   -6.6,   -6.6,   -6.5,   -6.3,   -6.4,   -6.3,   -6.4,   -6.6,   -6.8,   -6.7,   -6.5,   -6.1,   -5.7,   -5.3,   -4.9,   -4.9,   -4.9,   -4.7,   -4.4,   -4.4,   -4.3,   -4.3,   -4.3,   -4.3,   -4.4,   -4.5,   -4.5,   -4.3,   -4.3,   -4.4,   -4.4,   -3.9,   -3.8,   -3.7,   -3.6,   -3.4,   -3.3,   -3.3,   -3.2,   -2.8,   -3.4,   -3.3,   -3.8,   -3.7,   -4.5,   -3.6,   -4.2,   -4.5,   -3.9,   -3.7,   -3.7,   -3.3,   -2.7,   -2.5,   -2.5,   -2.4,   -2.6,   -2.4,   -2.1,   -1.6,   -1.7,   -1.5,   -1.4,   -1.3,   -1.6,   -1.7,   -1.6,   -1.5,   -1.5,   -2.1,   -2.1,   -2.1
2011/04/17 13:00,   -5.1,   -5.0,   -4.9,   -4.9,   -4.8,   -4.7,   -4.7,   -4.8,   -4.6,   -4.9,   -4.9,   -4.9,   -4.9,   -4.8,   -4.6,   -4.5,   -4.3,   -4.4,   -4.4,   -4.3,   -4.4,   -4.5,   -4.6,   -4.8,   -4.6,   -4.6,   -4.7,   -4.7,   -4.8,   -5.4,   -5.3,   -5.3,   -5.1,   -5.1,   -4.9,   -4.9,   -4.7,   -4.7,   -4.6,   -4.7,   -4.4,   -4.0,   -4.2,   -4.3,   -4.2,   -4.2,   -4.4,   -4.3,   -4.6,   -4.5,   -4.5,   -4.4,   -4.3,   -4.3,   -4.2,   -4.2,   -4.1,   -4.1,   -4.1,   -4.0,   -3.8,   -3.7,   -3.7,   -3.7,   -3.6,   -3.7,   -3.7,   -3.3,   -3.2,   -3.0,   -2.9,   -2.7,   -2.5,   -2.5,   -2.4,   -2.2,   -2.1,   -2.3,   -2.0,   -2.0,   -1.8,   -1.6,   -1.4,   -1.4,   -1.3,   -1.1,   -1.0,   -1.0,   -1.1,   -1.2,   -1.4,   -1.4,   -1.7,   -1.5,   -1.5,   -1.7,   -1.4,   -1.7
2011/04/17 13:10,  999.0,  999.0,   -5.4,   -4.8,   -5.1,   -5.3,   -5.1,   -5.0,   -5.0,   -5.0,   -4.9,   -4.9,   -4.8,   -5.2,   -5.1,   -5.1,   -5.3,   -5.3,   -5.2,   -5.1,   -5.0,   -4.9,   -4.5,   -4.8,   -4.8,   -4.7,   -4.4,   -4.3,   -4.2,   -4.1,   -4.0,   -4.0,   -3.9,   -3.8,   -3.6,   -3.5,   -3.3,   -3.4,   -3.4,   -3.2,   -2.6,   -2.6,   -2.7,   -2.8,   -3.0,   -3.1,   -3.3,   -3.4,   -3.3,   -3.1,   -3.1,   -3.1,   -3.0,   -3.0,   -3.0,   -3.0,   -3.0,   -2.9,   -2.9,   -3.0,   -2.9,   -3.0,   -3.0,   -2.8,   -2.4,  999.0,   -2.0,   -2.0,   -1.8,   -2.0,   -1.9,   -1.7,   -1.6,   -1.5,   -1.5,   -1.6,   -1.6,   -1.5,   -1.6,   -1.6,   -1.6,   -1.6,   -1.6,   -1.5,   -1.4,   -1.4,   -1.3,   -1.2,   -1.1,   -1.0,   -1.1,   -1.0,   -0.7,   -0.5,   -0.7,   -1.2,   -1.2,   -2.2
2011/04/17 13:20,  999.0,  999.0,  999.0,   -4.7,   -4.6,   -4.4,   -4.2,   -4.1,   -3.6,   -3.4,   -3.1,   -3.2,   -3.2,   -2.8,   -2.7,   -2.6,   -2.6,   -2.7,   -2.7,   -3.0,   -3.1,   -3.1,   -3.1,   -3.1,   -3.2,   -3.2,   -3.4,   -3.8,   -3.7,   -3.7,   -3.7,   -3.7,   -3.6,   -3.6,   -3.7,   -3.6,   -3.9,   -3.9,   -4.0,   -3.5,   -3.0,   -2.9,   -3.0,   -3.0,   -2.8,   -2.7,   -2.8,   -2.7,   -2.7,   -2.6,   -2.6,   -2.1,   -2.0,   -1.9,   -1.9,   -2.2,   -2.2,   -2.1,   -2.0,   -1.9,   -1.8,   -2.0,   -2.1,   -2.1,   -2.1,   -2.2,   -2.4,   -2.5,   -2.4,   -2.3,   -2.2,   -2.2,   -2.3,   -2.3,   -2.3,   -2.4,   -2.4,   -2.3,   -2.3,   -2.1,   -2.0,   -1.8,   -1.7,   -1.6,   -1.7,   -1.6,   -1.6,   -1.5,   -1.7,   -1.9,   -1.8,   -1.9,   -1.8,   -1.5,   -1.4,   -1.3,   -1.2,   -0.8
2011/04/17 13:30,    0.0,   -0.0,   -0.0,    0.1,    0.1,    0.2,    0.3,    0.5,    0.6,  999.0,  999.0,  999.0,  999.0,  999.0,  999.0,  999.0,  999.0,  999.0,  999.0,  999.0,  999.0,  999.0,  999.0,  999.0,  999.0,  999.0,   -3.0,   -2.1,   -2.1,   -2.0,   -2.0,   -1.9,   -2.9,   -2.7,   -2.6,   -2.6,   -2.4,   -2.5,   -2.4,   -2.4,   -2.2,   -1.7,   -1.6,   -1.7,   -1.5,   -1.6,   -1.3,   -1.8,   -1.7,   -1.6,   -1.6,   -1.5,   -1.6,   -1.5,   -1.5,   -1.4,   -1.4,   -1.3,   -1.4,   -1.5,   -1.5,   -1.5,   -1.5,   -1.6,   -1.7,   -1.7,   -1.7,   -1.8,   -1.9,   -2.1,   -2.2,   -2.4,   -2.4,   -2.5,   -2.3,   -2.2,   -2.1,   -2.1,   -2.1,   -2.2,   -2.3,   -2.3,   -2.8,   -2.7,   -2.8,   -2.6,   -2.7,   -2.6,  999.0,   -3.4,   -3.3,   -3.0,   -2.8,   -2.4,   -2.7,   -2.3,   -1.8,   -2.3
2011/04/17 13:40,    0.0,   -0.0,    0.0,    0.0,    0.0,    0.0,   -0.0,   -0.0,   -0.0,    0.0,   -0.0,    0.1,    0.0,   -0.0,   -0.1,   -0.2,   -0.1,   -0.2,   -0.1,   -0.1,   -0.2,   -0.3,   -0.3,   -0.3,  999.0,  999.0,   -0.2,   -0.2,   -0.1,   -0.2,   -0.2,   -0.3,  999.0,  999.0,  999.0,  999.0,  999.0,  999.0,   -2.4,   -2.4,   -2.5,   -2.5,   -2.3,   -2.1,  999.0,   -1.4,   -1.6,   -1.5,   -1.6,   -1.5,   -1.7,   -1.6,   -1.5,   -1.5,   -1.4,   -1.3,   -1.2,   -1.2,   -1.3,   -1.4,   -1.5,   -1.5,   -1.5,   -1.4,   -1.3,   -1.2,   -1.3,   -1.4,   -1.4,   -1.9,   -1.7,   -2.8,   -2.9,   -2.6,   -2.3,   -1.8,   -1.5,   -1.4,   -1.5,   -1.4,   -1.5,   -1.5,   -1.6,   -1.6,   -1.6,   -1.7,   -1.9,   -1.5,   -1.7,   -1.6,   -1.4,   -1.3,   -1.8,   -1.6,  999.0,  999.0,  999.0,  999.0
2011/04/17 13:50,   -0.0,   -0.0,    0.0,    0.0,   -0.0,   -0.0,   -0.0,   -0.1,   -0.1,   -0.1,   -0.1,   -0.0,   -0.1,   -0.0,   -0.1,   -0.1,   -0.2,   -0.1,  999.0,  999.0,  999.0,  999.0,  999.0,  999.0,  999.0,  999.0,  999.0,  999.0,  999.0,   -3.1,   -3.1,   -3.0,   -3.1,   -3.2,   -3.2,   -3.1,   -3.2,   -3.1,   -3.1,   -3.7,   -3.5,   -3.2,   -3.0,   -2.6,   -2.3,   -2.0,   -2.1,   -1.7,   -1.6,   -1.7,   -1.7,   -1.6,  999.0,   -1.0,  999.0,  999.0,  999.0,  999.0,  999.0,  999.0,  999.0,   -1.8,   -1.3,   -1.1,   -1.3,   -1.3,   -2.1,   -2.0,  999.0,   -1.1,  999.0,  999.0,  999.0,  999.0,  999.0,  999.0,   -1.6,   -1.2,   -1.3,   -1.0,   -1.0,   -1.1,   -1.0,   -1.0,   -1.1,   -0.9,   -0.9,   -0.8,   -0.8,   -1.0,   -0.9,  999.0,  999.0,  999.0,  999.0,  999.0,  999.0,  999.0
2011/04/17 14:00,   -0.0,   -0.0,   -0.0,    0.0,    0.0,    0.0,    0.1,    0.0,   -0.0,   -0.0,   -0.0,    0.0,    0.0,    0.0,   -0.0,   -0.1,   -0.1,   -0.0,   -0.0,    0.1,    0.1,  999.0,    0.1,  999.0,  999.0,  999.0,   -2.6,   -1.7,   -2.6,   -1.8,   -1.8,   -2.3,   -2.4,   -2.5,   -2.5,   -2.5,   -2.5,   -2.5,   -2.6,   -2.5,   -2.5,   -1.8,   -1.6,   -1.1,  999.0,  999.0,  999.0,  999.0,  999.0,  999.0,  999.0,  999.0,  999.0,  999.0,  999.0,  999.0,  999.0,  999.0,  999.0,  999.0,  999.0,  999.0,  999.0,  999.0,  999.0,  999.0,  999.0,  999.0,  999.0,  999.0,  999.0,  999.0,  999.0,  999.0,  999.0,  999.0,  999.0,  999.0,  999.0,  999.0,  999.0,  999.0,  999.0,  999.0,   -1.5,   -1.6,   -1.7,   -1.6,   -1.5,  999.0,   -1.3,   -1.1,   -1.3,   -1.6,   -1.9,   -1.7,   -1.6,   -1.5
2011/04/17 14:10,   -0.1,    0.0,    0.1,    0.1,    0.1,    0.1,    0.2,    0.2,    0.2,    0.1,    0.1,    0.1,    0.0,   -0.0,   -0.1,   -0.2,   -0.2,   -0.2,   -0.2,   -0.1,   -0.0,   -0.2,   -0.0,   -0.0,    0.1,  999.0,  999.0,   -0.1,   -0.2,   -0.2,   -0.3,    0.0,  999.0,  999.0,  999.0,   -0.0,  999.0,  999.0,   -0.1,    0.1,    0.0,    0.1,    0.1,    0.1,    0.1,  999.0,  999.0,  999.0,   -0.0,   -0.1,  999.0,  999.0,  999.0,  999.0,  999.0,  999.0,   -0.2,  999.0,  999.0,   -0.3,  999.0,  999.0,  999.0,  999.0,  999.0,  999.0,  999.0,  999.0,  999.0,  999.0,  999.0,  999.0,  999.0,  999.0,  999.0,   -1.4,   -1.2,   -1.0,   -1.0,   -1.0,   -1.1,   -1.2,   -1.4,   -1.3,   -1.3,   -1.3,   -1.4,   -1.4,   -1.4,   -1.3,   -1.3,   -1.2,   -1.0,   -1.1,   -1.3,   -1.5,   -1.8,   -1.5
2011/04/17 14:20,   -0.0,    0.1,    0.0,    0.2,    0.3,    0.4,    0.5,    0.4,    0.4,    0.3,    0.2,    0.2,    0.1,    0.1,    0.1,    0.1,    0.1,    0.1,    0.1,    0.1,    0.1,    0.2,    0.2,    0.1,  999.0,    0.1,   -0.1,    0.0,    0.0,   -0.1,   -0.0,    0.4,  999.0,  999.0,  999.0,  999.0,  999.0,  999.0,    0.3,    0.1,    0.2,    0.2,    0.2,   -0.0,    0.3,  999.0,  999.0,  999.0,    0.3,  999.0,  999.0,  999.0,  999.0,  999.0,  999.0,    0.0,   -0.1,   -0.2,   -0.5,   -0.1,  999.0,  999.0,  999.0,  999.0,  999.0,  999.0,   -0.9,   -1.0,   -1.2,   -1.3,   -1.4,   -1.6,   -1.6,   -1.5,   -1.4,   -1.4,   -1.3,   -1.3,   -1.3,   -1.4,   -1.5,   -1.6,   -1.6,   -1.5,   -1.3,   -1.3,  999.0,   -1.4,   -1.4,   -1.3,   -1.2,   -1.2,   -1.3,   -1.1,   -1.4,   -1.3,   -1.4,   -1.3
2011/04/17 14:30,    0.0,    0.0,    0.0,    0.2,    0.3,    0.3,    0.4,    0.3,    0.3,    0.4,    0.3,    0.3,    0.3,    0.3,    0.1,   -0.0,   -0.0,   -0.0,   -0.0,   -0.1,   -0.0,    0.2,    0.1,    0.1,  999.0,   -0.0,    0.1,  999.0,   -0.1,   -0.1,   -0.1,   -0.1,  999.0,    0.0,  999.0,  999.0,    0.1,   -0.0,   -0.0,   -0.1,   -0.2,   -0.4,  999.0,    0.1,    0.3,   -0.0,   -0.1,  999.0,  999.0,  999.0,  999.0,  999.0,  999.0,  999.0,  999.0,  999.0,  999.0,  999.0,   -1.5,   -1.5,   -1.4,   -1.4,   -1.3,   -1.4,   -1.3,   -1.4,   -1.4,   -1.4,   -1.4,   -1.5,   -1.5,   -1.5,   -1.4,   -1.3,   -1.2,   -1.2,   -1.2,   -1.3,   -1.4,   -1.5,   -1.7,   -1.8,   -1.9,   -1.9,   -1.9,   -1.8,   -1.8,   -1.7,   -1.6,   -1.5,   -1.4,   -1.3,   -1.1,   -0.9,   -1.0,   -0.9,   -1.0,   -0.9
2011/04/17 14:40,   -0.0,   -0.0,   -0.0,   -0.1,   -0.1,   -0.2,   -0.2,   -0.2,   -0.2,   -0.2,   -0.0,   -0.0,    0.1,    0.1,    0.0,   -0.1,   -0.1,   -0.2,    0.0,    0.1,    0.0,   -0.1,    0.0,    0.1,    0.0,   -0.1,    0.0,  999.0,  999.0,   -0.1,   -0.1,   -0.2,  999.0,  999.0,  999.0,  999.0,  999.0,    0.3,    0.4,    0.3,    0.3,    0.3,    0.0,    0.3,    0.1,  999.0,  999.0,  999.0,  999.0,  999.0,  999.0,  999.0,  999.0,   -1.9,   -1.8,   -1.6,   -1.6,   -1.7,   -1.6,   -1.6,   -1.6,   -1.7,   -1.8,   -1.7,   -1.8,   -1.8,   -1.9,   -1.8,   -1.8,   -1.7,   -1.7,   -1.6,   -1.5,   -1.3,   -1.1,   -1.1,   -1.3,   -1.3,   -1.3,   -1.4,   -1.5,   -1.5,   -1.6,   -1.6,   -1.5,   -1.5,   -1.4,   -1.3,   -1.3,   -1.3,   -1.3,   -1.2,   -1.3,   -1.3,   -1.3,   -1.3,   -1.3,   -1.3
2011/04/17 14:50,   -0.0,   -0.0,    0.0,   -0.0,   -0.0,   -0.0,   -0.1,   -0.1,   -0.1,   -0.1,   -0.1,   -0.1,   -0.0,   -0.0,   -0.1,   -0.2,   -0.3,   -0.2,   -0.2,   -0.1,    0.0,    0.2,    0.1,    0.2,    0.1,    0.1,    0.0,    0.1,   -0.1,    0.0,   -0.0,  999.0,  999.0,   -0.2,   -0.1,   -0.1,  999.0,   -0.1,   -0.0,   -0.0,   -0.2,   -0.2,   -0.2,  999.0,  999.0,  999.0,   -1.6,   -1.7,   -1.6,   -1.6,   -1.6,   -1.6,   -1.6,   -1.6,   -1.7,   -1.7,   -1.6,   -1.6,   -1.5,   -1.6,   -1.5,   -1.5,   -1.4,   -1.5,   -1.5,   -1.5,   -1.4,   -1.4,   -1.4,   -1.4,   -1.4,   -1.5,   -1.5,   -1.2,   -1.2,   -1.2,   -1.1,   -1.3,   -1.4,   -1.3,   -1.3,   -1.3,   -1.2,   -1.3,   -1.4,   -1.3,   -1.4,   -1.1,   -1.2,   -1.2,   -1.3,   -1.3,   -1.2,   -1.2,   -1.1,   -1.1,   -1.0,   -1.0
2011/04/17 15:00,    0.0,    0.0,   -0.0,    0.1,    0.1,   -0.0,   -0.0,   -0.0,   -0.0,   -0.0,   -0.0,    0.0,   -0.0,    0.0,    0.0,    0.1,   -0.0,   -0.1,   -0.1,   -0.1,    0.0,   -0.1,   -0.0,   -0.1,   -0.1,    0.0,    0.1,   -0.2,    0.2,    0.0,    0.1,   -0.1,    0.1,   -0.0,   -0.0,    0.1,   -0.0,  999.0,   -0.2,  999.0,  999.0,   -2.0,   -1.6,   -1.4,   -1.4,   -1.4,   -1.5,   -1.6,   -1.6,   -1.6,   -1.6,   -1.6,   -1.5,   -1.7,   -1.7,   -1.7,   -1.6,   -1.6,   -1.5,   -1.4,   -1.2,   -1.1,   -1.1,   -1.0,   -0.9,   -1.2,   -1.3,   -1.3,   -1.4,   -1.4,   -1.4,   -1.4,   -1.4,   -1.5,   -1.4,   -1.4,   -1.5,   -1.4,   -1.2,   -1.1,   -1.1,   -1.1,   -1.0,   -1.0,   -0.8,   -1.0,   -1.1,   -1.0,   -1.0,   -1.1,   -1.1,   -1.1,   -1.1,   -1.0,   -0.9,   -0.7,   -0.6,   -0.6
2011/04/17 15:10,    0.0,   -0.0,   -0.0,   -0.0,    0.0,   -0.0,   -0.1,   -0.1,   -0.1,   -0.1,   -0.2,   -0.1,   -0.2,   -0.1,   -0.2,   -0.2,   -0.2,   -0.2,   -0.2,   -0.2,   -0.0,    0.1,    0.0,  999.0,  999.0,   -0.1,  999.0,  999.0,  999.0,  999.0,  999.0,  999.0,  999.0,  999.0,   -0.4,  999.0,  999.0,  999.0,  999.0,  999.0,  999.0,  999.0,  999.0,   -1.4,   -1.4,   -1.3,   -1.3,   -1.4,   -1.5,   -1.4,   -1.4,   -1.4,   -1.3,   -1.3,   -1.3,   -1.3,   -1.3,   -1.4,   -1.4,   -1.4,   -1.5,   -1.6,   -1.5,   -1.6,   -1.6,   -1.6,   -1.6,   -1.6,   -1.6,   -1.6,   -1.6,   -1.6,   -1.6,   -1.5,   -1.5,   -1.3,   -1.2,   -1.0,   -1.0,   -0.9,   -1.0,   -1.0,   -1.0,   -1.0,   -1.0,   -0.9,   -0.9,   -1.1,   -1.0,   -0.9,   -0.9,   -1.4,   -1.2,   -1.2,   -1.0,   -0.9,   -0.6,   -0.7
2011/04/17 15:20,   -0.0,    0.0,    0.0,    0.1,    0.1,    0.1,    0.2,    0.2,    0.2,    0.1,    0.1,    0.1,    0.1,    0.2,    0.2,    0.2,    0.3,    0.3,    0.2,    0.2,    0.2,    0.3,  999.0,    0.3,  999.0,    0.3,    0.3,    0.2,    0.2,    0.1,    0.1,  999.0,  999.0,  999.0,  999.0,  999.0,  999.0,    0.1,    0.1,  999.0,  999.0,  999.0,  999.0,  999.0,   -0.7,   -1.2,   -1.4,   -1.3,   -1.3,   -1.2,   -1.3,   -1.3,   -1.4,   -1.4,   -1.5,   -1.5,   -1.6,   -1.6,   -1.5,   -1.5,   -1.6,   -1.6,   -1.7,   -1.7,   -1.6,   -1.7,   -1.6,   -1.6,   -1.6,   -1.5,   -1.4,   -1.3,   -1.3,   -1.2,   -1.1,   -1.0,   -1.0,   -0.9,   -0.9,   -1.0,   -1.0,   -1.0,   -1.1,   -1.1,   -1.1,   -1.1,   -1.0,   -1.1,   -1.2,   -1.2,   -1.1,   -1.0,   -0.9,   -0.5,   -0.4,   -0.4,   -0.3,   -0.4
2011/04/17 15:30,    0.0,   -0.0,   -0.0,   -0.0,    0.0,    0.0,    0.0,    0.1,    0.1,    0.0,    0.0,    0.0,    0.0,    0.1,    0.1,    0.1,    0.1,    0.1,    0.0,   -0.0,    0.1,   -0.0,    0.1,  999.0,  999.0,  999.0,  999.0,  999.0,   -0.1,   -0.1,  999.0,   -0.2,   -0.2,   -0.2,   -0.0,   -0.2,  999.0,  999.0,  999.0,  999.0,  999.0,  999.0,  999.0,  999.0,   -1.0,   -1.5,   -1.5,   -1.5,   -1.5,   -1.6,   -1.6,   -1.7,   -1.7,   -1.7,   -1.8,   -1.8,   -1.9,   -1.9,   -1.8,   -1.7,   -1.6,   -1.6,   -1.5,   -1.5,   -1.5,   -1.4,   -1.4,   -1.4,   -1.4,   -1.4,   -1.3,   -1.2,   -1.2,   -1.1,   -1.0,   -1.0,   -1.0,   -1.0,   -1.1,   -1.1,   -1.1,   -1.1,   -1.1,   -1.2,   -1.3,   -1.4,   -1.4,   -1.5,   -1.5,   -1.5,   -1.5,   -1.5,   -1.5,   -1.4,   -1.5,   -1.4,   -1.4,   -1.2
2011/04/17 15:40,   -0.0,   -0.0,   -0.0,   -0.1,   -0.1,   -0.1,   -0.1,   -0.2,   -0.2,   -0.1,   -0.1,   -0.1,    0.0,    0.0,    0.0,    0.0,   -0.1,   -0.1,   -0.0,   -0.1,   -0.1,   -0.0,   -0.1,   -0.0,  999.0,  999.0,  999.0,    0.1,   -0.0,    0.0,  999.0,  999.0,  999.0,  999.0,  999.0,  999.0,  999.0,  999.0,  999.0,  999.0,  999.0,  999.0,  999.0,  999.0,   -1.4,   -1.4,   -1.4,   -1.4,   -1.5,   -1.5,   -1.6,   -1.6,   -1.5,   -1.5,   -1.5,   -1.5,   -1.4,   -1.3,   -1.3,   -1.2,   -1.1,   -1.0,   -1.0,   -1.0,   -1.1,   -1.1,   -1.2,   -1.2,   -1.2,   -1.2,   -1.2,   -1.2,   -1.2,   -1.1,   -1.1,   -1.2,   -1.2,   -1.2,   -1.1,   -1.1,   -1.2,   -1.3,   -1.5,   -1.3,   -1.2,   -1.3,   -1.3,   -1.3,   -1.3,   -1.3,   -1.3,   -1.2,   -1.0,   -1.0,   -1.0,   -1.0,   -0.9,   -1.0
2011/04/17 15:50,    0.0,    0.0,    0.0,   -0.0,    0.0,   -0.0,   -0.1,   -0.1,   -0.1,   -0.1,   -0.1,   -0.0,   -0.1,   -0.1,   -0.1,   -0.2,   -0.1,   -0.1,  999.0,  999.0,  999.0,  999.0,  999.0,   -5.3,   -5.2,   -5.4,   -5.3,   -5.3,   -5.4,   -5.4,   -5.5,   -5.6,   -5.6,   -5.6,   -5.7,   -5.5,   -5.4,   -5.4,   -5.2,   -5.4,   -5.2,  999.0,  999.0,  999.0,   -1.5,   -1.4,   -1.5,   -1.5,   -1.5,   -1.6,   -1.6,   -1.5,   -1.3,   -1.3,   -1.4,   -1.4,   -1.4,   -1.4,   -1.4,   -1.4,   -1.4,   -1.4,   -1.5,   -1.5,   -1.4,   -1.5,   -1.5,   -1.5,   -1.5,   -1.4,   -1.3,   -1.3,   -1.4,   -1.3,   -1.2,   -1.3,   -1.2,   -1.2,   -1.2,   -1.1,   -1.1,   -1.0,   -1.1,   -1.1,   -1.4,   -1.0,   -1.0,   -0.8,   -0.7,   -0.8,   -0.9,   -1.0,   -1.1,   -0.9,   -1.2,   -1.3,   -1.3,   -1.2
2011/04/17 16:00,  999.0,    0.0,   -0.0,   -0.0,   -0.0,   -0.1,   -0.0,   -0.0,    0.0,    0.0,   -0.0,   -0.0,   -1.9,   -1.9,   -0.1,   -0.1,   -0.1,   -0.1,  999.0,  999.0,   -0.2,   -0.2,   -0.1,  999.0,  999.0,  999.0,  999.0,  999.0,  999.0,  999.0,   -0.2,  999.0,   -2.5,   -2.5,  999.0,   -2.4,   -2.3,  999.0,  999.0,  999.0,  999.0,  999.0,  999.0,    0.0,   -0.8,   -0.8,   -0.7,   -0.8,   -0.9,   -0.9,   -1.0,   -0.9,   -0.9,   -0.8,   -0.8,   -0.8,   -0.9,   -0.9,   -0.9,   -1.1,   -1.1,   -1.4,   -1.4,   -1.5,   -1.5,   -1.5,   -1.5,   -1.3,   -1.2,   -1.2,   -1.2,   -1.1,   -1.1,   -1.1,   -1.1,   -1.1,   -1.2,   -1.2,   -1.2,   -1.2,   -1.2,   -1.2,   -1.2,   -1.3,   -1.5,   -1.4,   -1.3,   -1.4,   -1.4,   -1.3,   -1.3,   -1.3,   -1.3,   -1.4,   -1.5,   -1.5,   -1.5,   -1.6
2011/04/17 16:10,   -0.0,    0.0,   -0.1,   -0.0,   -0.1,   -0.1,   -0.1,   -0.1,   -0.2,   -0.2,   -0.2,   -0.2,   -0.1,   -0.1,   -0.1,   -0.2,   -0.2,   -0.2,   -0.1,   -0.1,   -0.0,   -0.1,    0.1,    0.2,  999.0,  999.0,  999.0,    0.2,    0.2,    0.3,    0.5,    0.3,  999.0,    0.3,    0.2,   -0.1,   -0.1,    0.2,  999.0,    0.0,  999.0,  999.0,  999.0,  999.0,   -0.0,  999.0,  999.0,  999.0,  999.0,  999.0,  999.0,  999.0,  999.0,   -1.3,   -1.1,   -1.1,   -1.1,   -1.0,   -1.1,   -1.2,   -1.4,   -1.4,   -1.3,   -1.3,   -1.2,   -1.2,   -1.2,   -1.2,   -1.3,   -1.4,   -1.4,   -1.4,   -1.3,   -1.3,   -1.3,   -1.3,   -1.3,   -1.4,   -1.4,   -1.3,   -1.3,   -1.3,   -1.4,   -1.4,   -1.5,   -1.6,   -1.6,   -1.6,   -1.7,   -1.7,   -1.8,   -1.8,   -1.8,   -1.8,   -1.7,   -1.6,   -1.6,   -1.7
2011/04/17 16:20,  999.0,    0.0,   -0.0,   -0.0,   -0.0,   -0.0,    0.0,   -0.0,   -0.1,   -0.0,   -0.0,   -0.1,   -0.1,   -0.0,   -0.1,   -0.0,    0.0,   -0.0,  999.0,   -0.0,   -0.0,   -0.1,   -0.1,   -0.1,    0.0,  999.0,   -0.2,   -0.0,  999.0,   -0.2,   -0.1,  999.0,  999.0,    0.1,   -0.1,   -0.1,  999.0,  999.0,  999.0,  999.0,  999.0,  999.0,   -0.1,  999.0,  999.0,  999.0,    0.0,  999.0,  999.0,  999.0,  999.0,   -1.1,   -1.2,   -1.1,   -1.1,   -1.1,   -1.1,   -1.1,   -1.1,   -1.1,   -1.1,   -1.1,   -1.3,   -1.3,   -1.4,   -1.5,   -1.7,   -1.6,   -1.6,   -1.6,   -1.5,   -1.5,   -1.5,   -1.5,   -1.7,   -1.6,   -1.6,   -1.6,   -1.5,   -1.5,   -1.5,   -1.5,   -1.5,   -1.4,   -1.5,   -1.5,   -1.6,   -1.6,   -1.7,   -1.6,   -1.7,   -1.7,   -1.6,   -1.6,   -1.5,   -1.5,   -1.6,   -1.6
2011/04/17 16:30,    0.0,   -0.0,    0.0,    0.0,    0.0,    0.0,    0.0,    0.0,   -0.0,   -0.0,   -0.0,   -0.0,   -0.0,   -0.0,   -0.0,   -0.0,   -0.1,   -0.1,   -0.1,   -0.1,   -0.1,   -0.0,  999.0,   -0.1,  999.0,   -0.2,   -0.0,   -0.3,   -0.2,   -0.2,   -0.3,   -0.2,   -0.2,   -0.0,   -0.0,   -0.0,  999.0,  999.0,  999.0,  999.0,  999.0,  999.0,  999.0,  999.0,  999.0,  999.0,  999.0,  999.0,   -1.5,   -1.5,   -1.2,   -1.1,   -1.1,   -1.2,   -1.2,   -1.5,   -1.5,   -1.5,   -1.6,   -1.8,   -2.0,   -2.2,   -2.1,   -2.1,   -2.1,   -2.0,   -2.0,   -2.0,   -2.0,   -2.0,   -1.9,   -1.8,   -1.7,   -1.7,   -1.7,   -1.6,   -1.6,   -1.5,   -1.4,   -1.3,   -1.2,   -1.1,   -1.2,   -1.2,   -1.3,   -1.4,   -1.4,   -1.4,   -1.4,   -1.3,   -1.2,   -1.2,   -1.2,   -1.3,   -1.3,   -1.3,   -1.2,   -1.2
2011/04/17 16:40,    0.0,    0.1,   -0.0,    0.1,    0.1,    0.1,    0.1,    0.1,    0.1,    0.0,    0.0,   -0.0,    0.1,    0.0,    0.1,    0.1,    0.0,    0.0,   -0.1,    0.0,   -0.0,   -0.1,  999.0,  999.0,  999.0,   -0.1,   -0.1,   -0.2,   -0.1,   -0.1,   -0.0,   -0.0,  999.0,    0.0,   -0.0,    0.1,  999.0,  999.0,  999.0,  999.0,  999.0,  999.0,  999.0,  999.0,  999.0,  999.0,   -1.3,   -1.4,   -1.4,   -1.5,   -1.6,   -1.6,   -1.6,   -1.5,   -1.5,   -1.5,   -1.6,   -1.6,   -1.7,   -1.7,   -1.8,   -1.8,   -1.7,   -1.7,   -1.6,   -1.5,   -1.5,   -1.5,   -1.6,   -1.5,   -1.5,   -1.5,   -1.5,   -1.5,   -1.4,   -1.5,   -1.4,   -1.4,   -1.3,   -1.3,   -1.3,   -1.4,   -1.4,   -1.3,   -1.3,   -1.3,   -1.3,   -1.2,   -1.2,   -1.3,   -1.2,   -1.3,   -1.3,   -1.4,   -1.4,   -1.3,   -1.2,   -1.2
2011/04/17 16:50,  999.0,    0.0,    0.0,    0.1,    0.2,    0.2,    0.2,    0.2,    0.2,    0.2,    0.2,    0.2,    0.2,    0.1,    0.2,    0.2,    0.2,    0.2,    0.2,    0.2,    0.2,    0.2,    0.2,  999.0,    0.2,    0.1,    0.3,   -0.0,  999.0,    0.1,  999.0,   -0.1,    0.0,    0.0,    0.0,    0.1,  999.0,  999.0,  999.0,  999.0,  999.0,  999.0,  999.0,   -1.2,   -1.2,   -1.2,   -1.2,   -1.2,   -1.2,   -1.2,   -1.2,   -1.3,   -1.3,   -1.3,   -1.3,   -1.2,   -1.2,   -1.3,   -1.4,   -1.4,   -1.4,   -1.3,   -1.3,   -1.3,   -1.4,   -1.4,   -1.5,   -1.5,   -1.6,   -1.5,   -1.5,   -1.4,   -1.3,   -1.3,   -1.2,   -1.2,   -1.2,   -1.2,   -1.2,   -1.2,   -1.2,   -1.1,   -1.0,   -1.0,   -1.1,   -1.1,   -1.1,   -1.1,   -1.1,   -1.2,   -1.2,   -1.2,   -1.2,   -1.2,   -1.1,   -1.1,   -1.0,   -1.0
2011/04/17 17:00,  999.0,    0.0,    0.1,   -0.0,    0.0,   -0.0,   -0.0,   -0.0,   -0.1,   -0.0,   -0.1,    0.0,   -0.1,   -0.0,    0.0,    0.0,   -0.0,   -0.0,   -0.0,   -0.1,   -0.0,   -0.1,    0.1,  999.0,    0.1,   -0.2,   -0.0,   -0.2,  999.0,  999.0,    0.3,   -0.0,    0.0,   -0.1,    0.1,  999.0,  999.0,  999.0,  999.0,  999.0,  999.0,  999.0,  999.0,   -1.3,   -1.2,   -1.2,   -1.1,   -1.1,   -1.1,   -1.1,   -1.2,   -1.2,   -1.3,   -1.2,   -1.2,   -1.2,   -1.2,   -1.2,   -1.3,   -1.4,   -1.4,   -1.4,   -1.4,   -1.4,   -1.4,   -1.4,   -1.4,   -1.4,   -1.4,   -1.4,   -1.4,   -1.4,   -1.4,   -1.3,   -1.3,   -1.3,   -1.3,   -1.3,   -1.3,   -1.3,   -1.3,   -1.3,   -1.2,   -1.1,   -1.1,   -1.0,   -1.0,   -1.0,   -0.9,   -0.9,   -0.8,   -0.8,   -0.8,   -0.9,   -0.8,   -0.7,   -0.6,   -0.6
2011/04/17 17:10,    0.2,   -0.0,    0.1,    0.1,    0.0,    0.0,    0.0,   -0.0,   -0.1,   -0.1,   -0.1,   -0.1,   -0.1,   -0.0,   -0.1,   -0.1,   -0.1,   -0.1,   -0.0,   -0.0,   -0.1,   -0.1,   -0.1,  999.0,  999.0,    0.0,    0.1,  999.0,  999.0,  999.0,  999.0,  999.0,    0.1,    0.3,    0.1,  999.0,  999.0,  999.0,    0.4,    0.4,  999.0,  999.0,  999.0,   -0.8,  999.0,   -1.0,   -0.9,   -1.1,   -1.1,   -1.2,   -1.3,   -1.3,   -1.5,   -1.5,   -1.4,   -1.4,   -1.4,   -1.4,   -1.3,   -1.3,   -1.2,   -1.2,   -1.2,   -1.2,   -1.2,   -1.3,   -1.2,   -1.3,   -1.3,   -1.4,   -1.4,   -1.4,   -1.4,   -1.4,   -1.4,   -1.4,   -1.4,   -1.4,   -1.3,   -1.2,   -1.1,   -1.0,   -0.9,   -0.9,   -0.9,   -0.9,   -0.8,   -0.8,   -0.8,   -0.7,   -0.7,   -0.6,   -0.7,   -0.7,   -0.7,   -0.7,   -0.6,   -0.6
2011/04/17 17:20,  999.0,  999.0,    0.1,   -0.0,    0.0,   -0.0,    0.1,    0.1,    0.1,    0.1,    0.1,    0.1,    0.1,    0.2,    0.1,    0.1,    0.1,    0.2,    0.2,    0.2,    0.2,    0.2,    0.1,    0.1,  999.0,  999.0,    0.1,    0.1,  999.0,  999.0,    0.1,  999.0,    0.0,   -0.1,   -0.0,  999.0,  999.0,  999.0,  999.0,    0.1,  999.0,  999.0,  999.0,  999.0,   -1.2,   -1.2,   -1.3,   -1.3,   -1.3,   -1.3,   -1.3,   -1.4,   -1.4,   -1.3,   -1.2,   -1.2,   -1.1,   -1.0,   -1.2,   -1.2,   -1.2,   -1.2,   -1.2,   -1.2,   -1.2,   -1.1,   -1.1,   -1.1,   -1.1,   -1.0,   -1.1,   -1.0,   -1.1,   -1.1,   -1.1,   -1.1,   -1.2,   -1.0,   -1.0,   -1.1,   -1.1,   -1.1,   -1.0,   -1.0,   -1.0,   -1.0,   -1.0,   -0.9,   -0.9,   -0.8,   -0.8,   -0.8,   -0.8,   -0.8,   -0.8,   -0.7,   -0.7,   -0.7
2011/04/17 17:30,  999.0,  999.0,  999.0,    0.5,   -0.0,    0.2,    0.2,    0.1,    0.2,    0.1,    0.1,    0.1,    0.1,    0.2,    0.1,    0.2,    0.1,    0.2,    0.2,    0.2,    0.2,    0.2,    0.2,    0.2,  999.0,  999.0,  999.0,    0.2,  999.0,    0.1,    0.2,  999.0,   -0.0,   -0.0,  999.0,  999.0,  999.0,  999.0,  999.0,  999.0,  999.0,  999.0,  999.0,  999.0,   -1.0,   -0.9,   -1.0,   -1.0,   -1.1,   -1.1,   -1.1,   -1.1,   -1.1,   -1.1,   -1.0,   -0.9,   -1.1,  999.0,   -1.2,   -1.1,   -1.1,   -1.0,   -1.0,   -1.0,   -1.0,   -1.0,   -1.2,   -1.2,   -1.2,   -1.1,   -1.0,   -1.1,   -1.0,   -1.0,   -1.1,   -1.1,   -1.2,   -1.1,   -1.1,   -1.0,   -1.0,   -1.0,   -1.0,   -1.1,   -1.1,   -1.2,   -1.2,   -1.2,   -1.1,   -1.0,   -1.0,   -1.0,   -1.1,   -1.1,   -1.1,   -1.1,   -1.0,   -1.0
2011/04/17 17:40,  999.0,  999.0,  999.0,  999.0,    0.6,    0.1,   -0.1,   -0.1,   -0.1,   -0.1,   -0.2,   -0.2,   -0.1,   -0.0,   -0.2,   -0.1,   -0.1,   -0.1,   -0.1,  999.0,   -0.1,   -0.1,   -0.2,   -0.2,  999.0,    0.1,  999.0,    0.1,  999.0,    0.1,   -0.0,  999.0,  999.0,  999.0,  999.0,  999.0,  999.0,  999.0,  999.0,  999.0,  999.0,    0.2,    0.3,  999.0,  999.0,    0.0,    0.1,  999.0,  999.0,  999.0,  999.0,  999.0,  999.0,  999.0,  999.0,   -0.6,   -1.0,   -1.1,   -1.1,   -1.2,   -1.4,   -1.5,   -1.6,   -1.7,   -1.6,   -1.6,   -1.6,   -1.4,   -1.3,   -1.2,   -1.2,   -1.2,   -1.2,   -1.1,   -1.0,   -1.0,   -0.9,   -1.0,   -0.9,   -1.0,   -0.9,   -0.9,   -0.9,   -0.9,   -1.0,   -1.0,   -1.0,   -1.0,   -1.0,   -1.1,   -1.1,   -1.0,   -1.0,   -0.9,   -0.9,   -0.9,   -0.9,   -0.9
2011/04/17 17:50,  999.0,  999.0,  999.0,  999.0,  999.0,    0.1,    0.0,    0.1,    0.0,   -0.0,    0.1,    0.1,    0.2,    0.1,    0.1,    0.1,    0.0,   -0.0,   -0.1,   -0.2,   -0.2,   -0.2,   -0.3,   -0.4,   -0.1,    0.0,  999.0,    0.0,    0.1,    0.1,    0.0,  999.0,    0.1,   -0.0,    0.1,    0.0,  999.0,  999.0,  999.0,  999.0,  999.0,   -0.3,  999.0,  999.0,  999.0,  999.0,  999.0,  999.0,  999.0,  999.0,  999.0,  999.0,  999.0,  999.0,  999.0,  999.0,   -1.1,   -1.4,   -1.3,   -1.2,   -1.2,   -1.2,   -1.1,   -1.0,   -1.0,   -1.1,   -1.2,   -1.2,   -1.0,   -1.0,   -1.0,   -1.1,   -1.1,   -1.0,   -1.0,   -0.9,   -0.9,   -0.8,   -0.9,   -0.9,   -1.0,   -0.9,   -0.9,   -1.0,   -0.9,   -0.9,   -0.8,   -0.9,   -0.8,   -0.8,   -0.8,   -0.8,   -0.8,   -1.0,   -0.8,   -0.9,   -0.7,   -0.7
2011/04/17 18:00,  999.0,  999.0,   -0.2,    0.3,    0.2,    0.2,    0.1,    0.1,    0.0,   -0.0,    0.0,    0.0,    0.2,    0.1,    0.0,   -0.0,   -0.0,   -0.1,   -0.1,   -0.0,   -0.1,   -0.1,   -0.1,   -0.1,    0.1,  999.0,  999.0,  999.0,  999.0,  999.0,  999.0,  999.0,  999.0,    0.2,    0.2,  999.0,  999.0,  999.0,  999.0,  999.0,  999.0,  999.0,  999.0,  999.0,  999.0,  999.0,  999.0,  999.0,  999.0,  999.0,  999.0,  999.0,  999.0,   -1.3,   -1.1,   -1.1,   -1.1,   -1.2,   -1.3,   -1.3,   -1.4,   -1.2,   -1.1,   -1.0,   -0.9,   -1.0,   -0.9,   -0.8,   -0.8,   -1.0,   -1.0,   -1.1,   -1.2,   -1.2,   -1.2,   -1.2,   -1.2,   -1.2,   -1.2,   -1.1,   -1.1,   -1.2,   -1.2,   -1.1,   -1.0,   -1.0,   -1.0,   -1.0,   -0.9,   -0.9,   -0.7,   -0.7,   -0.8,   -0.6,   -0.6,  999.0,  999.0,   -0.7
2011/04/17 18:10,  999.0,  999.0,    0.2,  999.0,    0.0,    0.3,    0.1,    0.0,    0.0,   -0.0,   -0.1,   -0.0,    0.1,   -0.1,   -0.0,   -0.1,   -0.0,   -0.1,   -0.2,   -0.2,   -0.2,  999.0,   -0.1,   -0.1,   -0.2,   -0.1,  999.0,  999.0,   -0.0,    0.1,  999.0,  999.0,    0.1,   -0.0,   -0.1,   -0.1,  999.0,  999.0,  999.0,  999.0,  999.0,  999.0,  999.0,  999.0,  999.0,   -0.1,  999.0,  999.0,  999.0,  999.0,  999.0,   -1.0,   -1.0,   -0.9,   -0.8,  999.0,   -0.8,   -0.8,   -0.8,   -1.0,   -1.1,   -1.1,   -1.1,   -1.1,   -1.1,   -1.0,   -1.0,   -0.9,   -0.9,   -1.0,   -1.0,   -1.0,   -1.1,   -1.1,   -1.0,   -1.0,   -0.9,   -0.9,   -1.0,   -1.0,   -1.0,   -0.9,   -0.9,   -0.9,   -0.8,   -0.8,   -0.7,   -0.9,   -0.8,  999.0,  999.0,  999.0,  999.0,   -0.7,  999.0,   -0.6,  999.0,  999.0
2011/04/17 18:20,  999.0,  999.0,    0.2,  999.0,    0.1,    0.0,    0.1,    0.2,    0.5,    0.3,    0.1,    0.1,    0.1,   -0.1,   -0.1,    0.0,   -0.1,   -0.0,   -0.2,   -0.1,   -0.0,   -0.1,   -0.1,   -0.1,   -0.1,   -0.0,   -0.0,    0.0,   -0.1,    0.1,  999.0,  999.0,  999.0,  999.0,  999.0,    0.2,    0.1,  999.0,  999.0,  999.0,  999.0,  999.0,  999.0,  999.0,  999.0,  999.0,  999.0,  999.0,  999.0,  999.0,  999.0,  999.0,   -1.1,   -1.1,   -1.0,   -1.2,   -1.2,   -1.2,   -1.3,   -1.3,   -1.3,   -1.2,   -1.2,   -1.1,   -1.1,   -1.1,   -1.1,   -1.1,   -1.0,   -1.1,   -1.1,   -1.0,   -0.9,   -0.9,   -0.9,   -0.8,   -0.8,   -0.8,   -0.9,   -1.0,   -1.0,   -1.0,   -1.0,   -0.9,   -0.9,   -0.9,   -0.9,   -1.0,   -1.0,   -0.9,   -0.8,   -0.7,  999.0,  999.0,  999.0,  999.0,  999.0,  999.0
2011/04/17 18:30,  999.0,  999.0,  999.0,    0.0,  999.0,    0.1,    0.1,    0.1,    0.2,    0.0,    0.1,    0.2,    0.0,    0.1,  999.0,    0.4,    0.0,    0.0,    0.0,    0.1,    0.0,    0.0,    0.0,    0.1,    0.1,    0.2,    0.1,  999.0,  999.0,    0.1,    0.1,  999.0,  999.0,  999.0,    0.2,    0.1,    0.1,    0.3,  999.0,  999.0,  999.0,  999.0,  999.0,  999.0,  999.0,  999.0,  999.0,  999.0,  999.0,  999.0,  999.0,  999.0,   -0.8,   -0.8,   -0.7,   -0.8,   -0.9,   -1.1,   -1.1,   -1.2,   -1.1,   -1.1,   -1.1,   -1.0,   -1.0,   -1.0,   -0.9,   -0.8,   -0.8,   -0.8,   -0.9,   -1.0,   -1.1,   -1.2,   -1.2,   -1.2,   -1.2,   -1.2,   -1.2,   -1.1,   -1.1,   -1.1,   -1.0,   -0.9,   -0.8,   -0.8,   -0.8,   -1.2,  999.0,  999.0,  999.0,  999.0,  999.0,  999.0,  999.0,  999.0,  999.0,  999.0
2011/04/17 18:40,   -0.0,    0.1,    0.1,   -0.5,  999.0,   -0.3,  999.0,    0.0,    0.0,    0.1,   -0.2,   -0.0,   -0.1,    0.0,   -0.2,   -0.3,   -0.1,   -0.1,   -0.1,   -0.1,   -0.1,   -0.0,    0.0,   -0.0,   -0.1,   -0.0,   -0.1,    0.3,  999.0,  999.0,  999.0,  999.0,  999.0,  999.0,  999.0,  999.0,   -0.3,   -0.1,  999.0,  999.0,  999.0,  999.0,  999.0,  999.0,  999.0,  999.0,  999.0,  999.0,  999.0,  999.0,  999.0,  999.0,  999.0,  999.0,  999.0,  999.0,  999.0,  999.0,   -1.0,   -1.0,   -0.9,   -0.8,   -0.8,   -0.8,   -0.7,   -0.8,   -0.9,   -1.0,   -1.1,   -1.1,   -1.1,   -1.0,   -1.0,   -1.0,   -1.0,   -1.0,   -0.9,   -0.9,   -0.8,   -0.8,   -0.8,   -0.7,   -0.6,   -0.5,   -0.6,   -0.6,   -0.5,   -0.5,   -0.8,   -0.6,   -0.7,   -0.7,   -0.7,   -0.6,  999.0,  999.0,  999.0,  999.0
2011/04/17 18:50,    0.1,   -0.2,    0.4,   -0.1,    0.0,   -0.1,  999.0,  999.0,  999.0,   -0.1,   -0.0,    0.0,   -0.0,   -0.2,    0.0,    0.0,   -0.1,   -0.1,    0.0,   -0.1,    0.0,  999.0,    0.1,    0.0,    0.0,   -0.0,  999.0,    0.1,  999.0,  999.0,  999.0,    0.2,  999.0,  999.0,    0.1,    0.1,    0.1,  999.0,  999.0,  999.0,  999.0,   -0.0,  999.0,  999.0,  999.0,  999.0,  999.0,  999.0,  999.0,  999.0,  999.0,  999.0,  999.0,  999.0,  999.0,  999.0,  999.0,  999.0,  999.0,  999.0,   -1.3,   -1.3,   -1.3,   -1.3,   -1.2,   -1.3,   -1.2,   -1.2,   -1.2,   -1.2,   -1.1,   -1.1,   -1.1,   -1.1,   -1.1,   -1.0,   -1.1,   -1.1,   -1.1,   -1.1,   -1.1,   -1.0,   -1.0,   -1.0,   -0.9,   -1.0,   -0.6,   -0.6,   -0.4,  999.0,  999.0,  999.0,  999.0,  999.0,  999.0,  999.0,  999.0,  999.0
2011/04/17 19:00,   -0.1,   -0.1,    0.2,   -0.2,  999.0,  999.0,  999.0,  999.0,    0.1,  999.0,   -0.1,    0.0,    0.1,    0.2,    0.1,    0.2,    0.0,    0.0,  999.0,    0.0,   -0.1,    0.2,    0.0,  999.0,  999.0,   -0.0,  999.0,  999.0,  999.0,  999.0,  999.0,  999.0,    0.1,  999.0,  999.0,    0.1,  999.0,  999.0,  999.0,  999.0,    0.1,    0.2,  999.0,  999.0,  999.0,  999.0,  999.0,  999.0,  999.0,  999.0,  999.0,  999.0,  999.0,  999.0,  999.0,   -1.0,   -1.0,   -1.0,   -1.1,   -1.1,   -1.1,   -1.1,   -1.0,   -1.0,   -1.0,   -0.9,   -0.9,   -1.0,   -1.1,   -1.2,   -1.2,   -1.2,   -1.2,   -1.1,   -1.1,   -1.2,   -1.1,   -1.1,   -1.0,   -0.9,   -0.9,   -0.9,   -0.9,   -0.7,   -0.7,  999.0,  999.0,  999.0,  999.0,  999.0,  999.0,  999.0,  999.0,  999.0,  999.0,  999.0,  999.0,  999.0
2011/04/17 19:10,    0.2,    0.3,    0.5,  999.0,  999.0,  999.0,  999.0,  999.0,    0.1,   -0.1,   -0.0,   -0.0,    0.1,    0.0,   -0.0,    0.1,    0.0,   -0.0,   -0.0,   -0.0,   -0.0,   -0.0,   -0.1,  999.0,  999.0,  999.0,  999.0,   -0.2,  999.0,  999.0,  999.0,  999.0,  999.0,  999.0,  999.0,   -0.2,  999.0,  999.0,  999.0,  999.0,  999.0,  999.0,  999.0,  999.0,  999.0,  999.0,  999.0,  999.0,  999.0,  999.0,  999.0,  999.0,  999.0,  999.0,  999.0,  999.0,  999.0,  999.0,   -0.7,   -0.8,   -0.9,   -1.0,   -1.0,   -1.0,   -1.1,   -1.2,   -1.2,   -1.2,   -1.2,   -1.1,   -1.1,   -1.0,   -1.0,   -0.9,   -0.9,   -0.9,   -0.9,   -0.9,   -0.8,   -0.8,   -0.8,   -0.8,  999.0,  999.0,  999.0,  999.0,  999.0,  999.0,  999.0,  999.0,  999.0,  999.0,  999.0,  999.0,  999.0,  999.0,  999.0,  999.0
2011/04/17 19:20,  999.0,    0.6,    0.2,    0.1,    0.0,    0.0,    0.0,   -0.0,    0.1,  999.0,   -0.0,   -0.2,   -0.0,   -0.0,    0.1,    0.1,    0.0,    0.0,   -0.0,   -0.0,    0.0,    0.0,   -0.1,  999.0,    0.3,  999.0,  999.0,  999.0,  999.0,  999.0,  999.0,  999.0,  999.0,  999.0,  999.0,  999.0,  999.0,  999.0,   -0.0,  999.0,  999.0,  999.0,  999.0,  999.0,  999.0,  999.0,  999.0,  999.0,  999.0,  999.0,  999.0,  999.0,  999.0,  999.0,  999.0,  999.0,  999.0,  999.0,   -1.1,   -1.1,   -1.3,   -1.3,   -1.3,   -1.3,   -1.2,   -1.2,   -1.2,   -1.1,   -1.1,   -1.0,   -1.1,   -1.0,   -1.0,   -1.0,   -1.0,   -1.0,   -1.1,   -1.1,   -1.1,   -1.0,  999.0,  999.0,  999.0,  999.0,  999.0,  999.0,  999.0,  999.0,  999.0,  999.0,  999.0,  999.0,  999.0,  999.0,  999.0,  999.0,  999.0,  999.0
2011/04/17 19:30,    0.1,   -0.2,    0.1,   -0.1,    0.0,    0.0,    0.1,    0.1,    0.2,    0.0,   -0.1,    0.1,    0.0,    0.1,    0.1,    0.0,   -0.0,   -0.0,    0.0,   -0.0,    0.1,    0.2,    0.1,    0.2,  999.0,    0.3,  999.0,  999.0,  999.0,  999.0,   -0.2,  999.0,    0.1,  999.0,  999.0,    0.2,    0.0,  999.0,  999.0,  999.0,  999.0,  999.0,  999.0,  999.0,  999.0,  999.0,   -0.2,  999.0,  999.0,  999.0,  999.0,  999.0,  999.0,   -1.0,   -1.0,   -1.0,   -1.0,   -1.0,   -1.0,   -1.0,   -1.0,   -1.1,   -1.1,   -1.1,   -1.0,   -1.0,   -1.0,   -1.0,   -1.0,   -1.0,   -1.1,   -1.1,   -1.1,   -1.0,   -1.1,   -1.1,   -1.2,  999.0,  999.0,  999.0,  999.0,  999.0,  999.0,  999.0,  999.0,  999.0,  999.0,  999.0,  999.0,  999.0,  999.0,   -1.3,  999.0,  999.0,  999.0,  999.0,  999.0,  999.0
2011/04/17 19:40,    0.1,  999.0,  999.0,    0.1,   -0.0,   -0.3,   -0.1,   -0.1,   -0.1,   -0.1,   -0.2,   -0.1,   -0.1,    0.0,    0.2,   -0.1,   -0.1,   -0.1,   -0.1,   -0.2,   -0.1,   -0.0,    0.1,    0.0,  999.0,   -0.0,   -0.0,    0.0,  999.0,   -0.1,   -0.1,  999.0,  999.0,  999.0,  999.0,  999.0,  999.0,  999.0,  999.0,  999.0,  999.0,  999.0,  999.0,  999.0,  999.0,  999.0,  999.0,  999.0,  999.0,  999.0,   -0.9,   -1.0,   -1.1,   -1.0,   -1.1,   -1.1,   -1.1,   -1.2,   -1.2,   -1.2,   -1.2,   -1.2,   -1.2,   -1.1,   -1.1,   -1.0,   -1.0,   -1.0,   -1.0,   -1.0,   -1.0,   -0.9,  999.0,  999.0,  999.0,  999.0,  999.0,  999.0,  999.0,  999.0,  999.0,  999.0,  999.0,  999.0,  999.0,  999.0,  999.0,  999.0,  999.0,  999.0,  999.0,  999.0,  999.0,  999.0,  999.0,  999.0,  999.0,  999.0
2011/04/17 19:50,    0.2,    0.5,    0.0,    0.0,    0.1,    0.1,    0.1,    0.1,    0.1,   -0.0,   -0.0,    0.1,   -0.0,   -0.1,   -0.1,   -0.1,   -0.1,   -0.0,    0.0,    0.0,    0.1,    0.1,    0.1,    0.1,  999.0,    0.0,    0.1,    0.0,  999.0,  999.0,    0.3,  999.0,  999.0,  999.0,  999.0,    0.4,  999.0,  999.0,    0.4,  999.0,  999.0,  999.0,  999.0,  999.0,  999.0,  999.0,  999.0,  999.0,  999.0,   -1.0,   -1.1,   -1.2,   -1.1,   -1.0,   -1.0,   -1.0,   -1.0,   -1.0,   -1.1,   -0.9,  999.0,   -1.3,   -1.4,   -1.3,   -1.2,   -1.0,   -0.9,  999.0,  999.0,  999.0,  999.0,  999.0,  999.0,  999.0,  999.0,  999.0,  999.0,  999.0,  999.0,  999.0,  999.0,  999.0,  999.0,  999.0,  999.0,  999.0,  999.0,  999.0,  999.0,  999.0,  999.0,  999.0,  999.0,  999.0,  999.0,  999.0,  999.0,  999.0
2011/04/17 20:00,    0.1,   -0.2,   -0.0,    0.1,    0.1,    0.1,    0.0,    0.1,    0.1,    0.1,  999.0,    0.1,    0.1,    0.1,    0.1,    0.1,    0.0,    0.1,    0.0,   -0.0,    0.1,   -0.0,    0.1,    0.0,    0.1,    0.2,    0.1,  999.0,  999.0,  999.0,    0.1,  999.0,  999.0,  999.0,  999.0,  999.0,  999.0,  999.0,  999.0,  999.0,  999.0,  999.0,  999.0,  999.0,  999.0,  999.0,  999.0,  999.0,   -0.0,  999.0,  999.0,  999.0,  999.0,  999.0,  999.0,  999.0,  999.0,  999.0,  999.0,  999.0,  999.0,  999.0,  999.0,  999.0,  999.0,  999.0,  999.0,  999.0,  999.0,  999.0,  999.0,  999.0,  999.0,  999.0,  999.0,  999.0,  999.0,  999.0,  999.0,  999.0,  999.0,  999.0,  999.0,  999.0,  999.0,  999.0,  999.0,  999.0,  999.0,  999.0,  999.0,  999.0,  999.0,  999.0,  999.0,  999.0,  999.0,  999.0
2011/04/17 20:10,    0.0,    0.2,   -0.1,   -0.1,   -0.0,   -0.1,   -0.0,   -0.1,   -0.1,   -0.1,   -0.1,   -0.1,   -0.1,   -0.1,   -0.0,   -0.2,   -0.2,   -0.3,   -0.3,   -0.2,   -0.2,   -0.1,   -0.1,   -0.1,  999.0,   -0.3,  999.0,  999.0,  999.0,  999.0,   -0.0,  999.0,  999.0,  999.0,  999.0,   -0.1,  999.0,  999.0,  999.0,  999.0,  999.0,  999.0,  999.0,  999.0,  999.0,  999.0,  999.0,  999.0,  999.0,  999.0,  999.0,  999.0,  999.0,  999.0,  999.0,  999.0,  999.0,  999.0,  999.0,  999.0,  999.0,  999.0,  999.0,  999.0,  999.0,  999.0,  999.0,  999.0,  999.0,  999.0,  999.0,  999.0,  999.0,  999.0,  999.0,  999.0,  999.0,  999.0,  999.0,  999.0,  999.0,  999.0,  999.0,  999.0,  999.0,  999.0,  999.0,  999.0,  999.0,  999.0,  999.0,  999.0,  999.0,  999.0,  999.0,  999.0,  999.0,  999.0
2011/04/17 20:20,   -0.0,    0.1,   -0.1,    0.1,   -0.1,    0.0,    0.0,   -0.1,   -0.1,    0.1,    0.1,    0.2,    0.1,    0.1,  999.0,   -0.0,    0.0,   -0.0,    0.0,    0.0,   -0.0,    0.0,    0.0,   -0.0,    0.1,    0.0,   -0.1,  999.0,    0.0,  999.0,  999.0,  999.0,  999.0,  999.0,  999.0,    0.2,   -0.0,    0.3,  999.0,  999.0,  999.0,  999.0,  999.0,  999.0,  999.0,  999.0,  999.0,  999.0,  999.0,  999.0,  999.0,  999.0,  999.0,  999.0,  999.0,  999.0,  999.0,  999.0,  999.0,  999.0,  999.0,  999.0,  999.0,  999.0,  999.0,  999.0,  999.0,  999.0,  999.0,  999.0,  999.0,  999.0,  999.0,  999.0,  999.0,  999.0,  999.0,  999.0,  999.0,  999.0,  999.0,  999.0,  999.0,  999.0,  999.0,  999.0,  999.0,  999.0,  999.0,  999.0,  999.0,  999.0,  999.0,  999.0,  999.0,  999.0,  999.0,  999.0
2011/04/17 20:30,    0.1,   -0.0,   -0.0,    0.0,    0.0,   -0.0,    0.0,   -0.0,   -0.0,   -0.1,  999.0,    0.1,    0.0,    0.1,    0.0,    0.1,    0.0,    0.0,    0.2,  999.0,    0.1,    0.1,    0.1,    0.1,    0.2,    0.2,    0.1,  999.0,  999.0,  999.0,  999.0,  999.0,    0.1,  999.0,  999.0,    0.2,   -0.0,  999.0,  999.0,  999.0,  999.0,  999.0,  999.0,  999.0,  999.0,  999.0,  999.0,  999.0,  999.0,  999.0,  999.0,  999.0,  999.0,  999.0,  999.0,  999.0,  999.0,  999.0,  999.0,  999.0,  999.0,  999.0,  999.0,  999.0,  999.0,   -0.0,  999.0,  999.0,  999.0,  999.0,  999.0,  999.0,  999.0,  999.0,  999.0,  999.0,  999.0,  999.0,  999.0,  999.0,  999.0,  999.0,  999.0,  999.0,  999.0,  999.0,  999.0,  999.0,  999.0,  999.0,  999.0,  999.0,  999.0,  999.0,  999.0,  999.0,  999.0,  999.0
2011/04/17 20:40,    0.1,    0.0,   -0.2,    0.0,    0.0,    0.0,    0.1,    0.1,    0.1,    0.3,   -0.1,    0.1,    0.1,    0.2,    0.1,   -0.0,   -0.1,   -0.1,   -0.1,   -0.1,   -0.2,   -0.1,   -0.2,   -0.2,   -0.1,  999.0,    0.0,  999.0,  999.0,  999.0,  999.0,  999.0,  999.0,  999.0,  999.0,  999.0,  999.0,  999.0,  999.0,  999.0,  999.0,  999.0,  999.0,  999.0,  999.0,  999.0,  999.0,  999.0,  999.0,  999.0,  999.0,  999.0,  999.0,  999.0,  999.0,  999.0,  999.0,  999.0,  999.0,  999.0,  999.0,  999.0,  999.0,  999.0,  999.0,  999.0,  999.0,  999.0,  999.0,  999.0,  999.0,  999.0,  999.0,  999.0,  999.0,  999.0,  999.0,  999.0,  999.0,  999.0,  999.0,  999.0,  999.0,  999.0,  999.0,  999.0,  999.0,  999.0,  999.0,  999.0,  999.0,  999.0,  999.0,  999.0,  999.0,  999.0,  999.0,  999.0
2011/04/17 20:50,  999.0,  999.0,    0.1,   -0.2,   -0.0,   -0.2,   -0.1,    0.1,   -0.1,   -0.0,   -0.1,    0.1,   -0.0,   -0.0,   -0.0,   -0.0,   -0.0,   -0.0,   -0.1,   -0.1,   -0.1,   -0.1,  999.0,  999.0,  999.0,   -0.1,  999.0,  999.0,  999.0,  999.0,   -0.0,  999.0,   -0.1,  999.0,  999.0,  999.0,  999.0,  999.0,    0.0,  999.0,  999.0,  999.0,  999.0,  999.0,  999.0,  999.0,  999.0,  999.0,  999.0,  999.0,  999.0,  999.0,  999.0,  999.0,  999.0,  999.0,  999.0,  999.0,  999.0,  999.0,  999.0,  999.0,  999.0,  999.0,  999.0,  999.0,  999.0,  999.0,  999.0,  999.0,  999.0,  999.0,  999.0,  999.0,  999.0,  999.0,  999.0,  999.0,  999.0,  999.0,  999.0,  999.0,  999.0,  999.0,  999.0,  999.0,  999.0,  999.0,  999.0,  999.0,  999.0,  999.0,  999.0,  999.0,  999.0,  999.0,  999.0,  999.0
2011/04/17 21:00,   -0.0,  999.0,    0.7,   -0.0,   -0.0,   -0.0,   -0.0,    0.0,   -0.0,    0.1,    0.1,    0.1,    0.0,    0.1,   -0.0,   -0.0,   -0.0,    0.1,    0.1,    0.1,   -0.0,   -0.0,   -0.1,   -0.1,  999.0,  999.0,    0.1,  999.0,    0.1,  999.0,  999.0,  999.0,  999.0,  999.0,  999.0,  999.0,  999.0,  999.0,  999.0,  999.0,  999.0,  999.0,  999.0,  999.0,  999.0,  999.0,  999.0,  999.0,  999.0,  999.0,  999.0,  999.0,  999.0,  999.0,  999.0,  999.0,  999.0,  999.0,  999.0,  999.0,  999.0,  999.0,  999.0,  999.0,  999.0,  999.0,  999.0,  999.0,  999.0,  999.0,  999.0,  999.0,  999.0,  999.0,  999.0,  999.0,  999.0,  999.0,  999.0,  999.0,  999.0,  999.0,  999.0,  999.0,  999.0,  999.0,  999.0,  999.0,  999.0,  999.0,  999.0,  999.0,  999.0,  999.0,  999.0,  999.0,  999.0,  999.0
2011/04/17 21:10,   -0.7,   -0.9,    0.2,    0.1,    0.0,   -0.1,   -0.1,   -0.1,   -0.1,   -0.2,   -0.2,   -0.1,   -0.1,   -0.1,   -0.0,   -0.1,   -0.1,   -0.1,    0.0,   -0.1,   -0.1,   -0.0,   -0.1,   -0.2,  999.0,   -0.0,  999.0,  999.0,  999.0,  999.0,  999.0,  999.0,  999.0,  999.0,  999.0,  999.0,  999.0,  999.0,    0.0,  999.0,  999.0,  999.0,  999.0,  999.0,  999.0,  999.0,  999.0,  999.0,  999.0,  999.0,  999.0,  999.0,  999.0,  999.0,  999.0,  999.0,  999.0,  999.0,  999.0,  999.0,  999.0,  999.0,  999.0,  999.0,  999.0,  999.0,  999.0,  999.0,  999.0,  999.0,  999.0,  999.0,  999.0,  999.0,  999.0,  999.0,  999.0,  999.0,  999.0,  999.0,  999.0,  999.0,  999.0,  999.0,  999.0,  999.0,  999.0,  999.0,  999.0,  999.0,  999.0,  999.0,  999.0,  999.0,  999.0,  999.0,  999.0,  999.0
2011/04/17 21:20,  999.0,   -0.0,    0.1,   -0.2,   -0.2,    0.0,    0.1,    0.0,    0.0,    0.0,   -0.0,   -0.1,    0.0,   -0.1,   -0.0,   -0.1,   -0.1,   -0.1,   -0.1,   -0.1,   -0.1,   -0.1,   -0.0,   -0.0,  999.0,   -0.3,   -0.0,  999.0,  999.0,  999.0,  999.0,  999.0,  999.0,  999.0,  999.0,  999.0,    0.2,  999.0,  999.0,  999.0,  999.0,  999.0,  999.0,  999.0,  999.0,  999.0,  999.0,  999.0,  999.0,  999.0,  999.0,  999.0,  999.0,  999.0,  999.0,  999.0,  999.0,  999.0,  999.0,  999.0,  999.0,  999.0,  999.0,  999.0,  999.0,  999.0,  999.0,  999.0,  999.0,  999.0,  999.0,  999.0,  999.0,  999.0,  999.0,  999.0,  999.0,  999.0,  999.0,  999.0,  999.0,  999.0,  999.0,  999.0,  999.0,  999.0,  999.0,  999.0,  999.0,  999.0,  999.0,  999.0,  999.0,  999.0,  999.0,  999.0,  999.0,  999.0
2011/04/17 21:30,   -0.1,  999.0,   -0.2,   -0.2,   -0.3,   -0.0,   -0.1,   -0.0,   -0.1,    0.0,   -0.1,   -0.1,   -0.1,   -0.1,   -0.2,   -0.1,   -0.1,   -0.1,   -0.0,   -0.1,   -0.1,   -0.1,   -0.1,  999.0,    0.0,   -0.0,  999.0,  999.0,  999.0,  999.0,    0.3,    0.2,  999.0,  999.0,  999.0,  999.0,  999.0,  999.0,  999.0,  999.0,  999.0,  999.0,  999.0,  999.0,  999.0,  999.0,  999.0,  999.0,  999.0,  999.0,  999.0,  999.0,  999.0,  999.0,  999.0,  999.0,  999.0,  999.0,  999.0,  999.0,  999.0,  999.0,  999.0,  999.0,  999.0,  999.0,  999.0,  999.0,  999.0,  999.0,  999.0,  999.0,  999.0,  999.0,  999.0,  999.0,  999.0,  999.0,  999.0,  999.0,  999.0,  999.0,  999.0,  999.0,  999.0,  999.0,  999.0,  999.0,  999.0,  999.0,  999.0,  999.0,  999.0,  999.0,  999.0,  999.0,  999.0,  999.0
2011/04/17 21:40,  999.0,    0.3,  999.0,    0.1,  999.0,    0.2,    0.1,    0.0,   -0.0,   -0.1,   -0.0,    0.0,    0.0,    0.0,   -0.0,   -0.1,   -0.1,   -0.1,   -0.0,   -0.1,   -0.1,   -0.1,   -0.2,   -0.1,   -0.1,  999.0,  999.0,  999.0,  999.0,  999.0,  999.0,  999.0,  999.0,  999.0,    0.0,  999.0,  999.0,  999.0,  999.0,  999.0,  999.0,  999.0,  999.0,  999.0,  999.0,  999.0,  999.0,  999.0,  999.0,    0.1,  999.0,  999.0,  999.0,  999.0,  999.0,  999.0,  999.0,  999.0,  999.0,  999.0,  999.0,  999.0,  999.0,  999.0,  999.0,  999.0,  999.0,  999.0,  999.0,  999.0,  999.0,  999.0,  999.0,  999.0,  999.0,   -0.5,   -0.4,   -0.4,   -0.5,   -0.5,   -0.5,   -0.4,  999.0,  999.0,  999.0,  999.0,  999.0,  999.0,  999.0,  999.0,  999.0,  999.0,  999.0,  999.0,  999.0,  999.0,  999.0,  999.0
2011/04/17 21:50,    0.1,    0.3,    0.3,    0.3,  999.0,    0.1,    0.1,    0.1,    0.1,    0.0,   -0.0,    0.1,    0.1,    0.1,    0.1,    0.1,    0.2,    0.1,    0.1,    0.1,  999.0,    0.2,    0.2,    0.2,    0.1,  999.0,  999.0,  999.0,  999.0,  999.0,  999.0,  999.0,  999.0,  999.0,  999.0,    0.3,  999.0,  999.0,  999.0,  999.0,  999.0,  999.0,  999.0,  999.0,  999.0,  999.0,  999.0,  999.0,  999.0,  999.0,  999.0,  999.0,  999.0,  999.0,  999.0,  999.0,  999.0,  999.0,  999.0,  999.0,  999.0,  999.0,  999.0,  999.0,  999.0,  999.0,  999.0,  999.0,  999.0,  999.0,  999.0,  999.0,  999.0,   -0.7,   -0.7,   -0.6,   -0.6,   -0.6,   -0.6,   -0.4,  999.0,  999.0,  999.0,  999.0,  999.0,  999.0,  999.0,  999.0,  999.0,  999.0,  999.0,  999.0,  999.0,  999.0,  999.0,  999.0,  999.0,  999.0
2011/04/17 22:00,    0.1,    0.2,    0.0,    0.1,    0.0,    0.1,    0.1,   -0.1,   -0.0,    0.0,    0.0,   -0.1,   -0.0,   -0.1,   -0.0,   -0.1,   -0.1,   -0.0,   -0.0,    0.0,  999.0,  999.0,  999.0,  999.0,    0.1,    0.1,  999.0,  999.0,  999.0,  999.0,  999.0,  999.0,  999.0,  999.0,  999.0,    0.2,  999.0,  999.0,    0.4,  999.0,  999.0,  999.0,  999.0,  999.0,  999.0,  999.0,  999.0,  999.0,  999.0,    0.2,  999.0,    0.0,  999.0,  999.0,  999.0,  999.0,  999.0,  999.0,  999.0,  999.0,  999.0,  999.0,  999.0,  999.0,  999.0,  999.0,  999.0,  999.0,  999.0,  999.0,   -0.8,   -0.7,   -0.6,   -0.6,   -0.6,   -0.6,   -0.7,   -0.8,   -0.7,  999.0,  999.0,   -0.7,  999.0,   -0.6,  999.0,   -0.6,  999.0,  999.0,  999.0,  999.0,  999.0,  999.0,  999.0,  999.0,  999.0,  999.0,  999.0,  999.0
2011/04/17 22:10,    0.2,   -0.2,    0.1,   -0.2,   -0.1,   -0.3,   -0.1,   -0.1,   -0.0,   -0.0,   -0.1,   -0.1,   -0.0,    0.0,   -0.1,   -0.1,   -0.0,    0.0,   -0.1,   -0.1,   -0.1,  999.0,  999.0,    0.1,  999.0,  999.0,  999.0,  999.0,  999.0,  999.0,  999.0,  999.0,  999.0,  999.0,  999.0,  999.0,  999.0,  999.0,  999.0,  999.0,  999.0,  999.0,  999.0,  999.0,  999.0,  999.0,  999.0,  999.0,  999.0,  999.0,  999.0,  999.0,  999.0,  999.0,  999.0,  999.0,  999.0,  999.0,  999.0,  999.0,  999.0,  999.0,  999.0,  999.0,  999.0,  999.0,  999.0,  999.0,  999.0,  999.0,   -0.7,   -0.8,   -0.8,   -0.7,   -0.7,   -0.8,   -0.7,   -0.8,   -0.7,   -0.8,   -0.6,   -0.6,   -0.6,   -0.5,  999.0,  999.0,  999.0,  999.0,  999.0,  999.0,  999.0,  999.0,  999.0,  999.0,  999.0,  999.0,  999.0,  999.0
2011/04/17 22:20,   -0.0,    0.0,   -0.1,   -0.3,   -0.4,   -0.2,   -0.2,    0.1,    0.1,   -0.1,    0.1,   -0.1,    0.0,    0.0,   -0.0,   -0.0,   -0.0,   -0.1,   -0.1,   -0.1,   -0.1,  999.0,   -0.2,   -0.1,  999.0,   -0.1,  999.0,  999.0,  999.0,  999.0,  999.0,    0.0,  999.0,  999.0,  999.0,  999.0,  999.0,  999.0,  999.0,  999.0,  999.0,  999.0,  999.0,  999.0,  999.0,  999.0,  999.0,  999.0,  999.0,  999.0,    0.0,  999.0,  999.0,  999.0,  999.0,  999.0,  999.0,  999.0,   -0.0,  999.0,  999.0,  999.0,  999.0,  999.0,  999.0,  999.0,  999.0,  999.0,  999.0,   -0.6,   -0.7,   -0.7,   -0.8,   -0.8,   -0.8,   -0.8,   -0.7,   -0.7,   -0.7,   -0.7,   -0.7,   -0.6,   -0.6,   -0.6,   -0.6,  999.0,   -0.5,  999.0,  999.0,  999.0,  999.0,  999.0,  999.0,  999.0,  999.0,  999.0,  999.0,  999.0
2011/04/17 22:30,    0.1,    0.1,   -0.0,    0.1,    0.2,   -0.1,   -0.1,    0.1,   -0.0,   -0.1,   -0.0,   -0.1,   -0.1,   -0.0,   -0.0,   -0.0,   -0.0,   -0.0,   -0.0,   -0.0,    0.0,  999.0,    0.1,    0.0,  999.0,  999.0,  999.0,  999.0,  999.0,  999.0,  999.0,  999.0,  999.0,  999.0,  999.0,  999.0,   -0.1,  999.0,   -0.1,  999.0,  999.0,  999.0,  999.0,  999.0,  999.0,  999.0,  999.0,  999.0,  999.0,    0.0,  999.0,  999.0,  999.0,  999.0,  999.0,  999.0,  999.0,  999.0,  999.0,  999.0,  999.0,    0.0,  999.0,  999.0,  999.0,  999.0,  999.0,  999.0,  999.0,   -0.8,   -0.8,   -0.8,   -0.7,   -0.7,   -0.7,   -0.7,   -0.6,   -0.7,   -0.7,   -0.7,   -0.7,   -0.7,   -0.7,   -0.7,   -0.6,   -0.6,  999.0,  999.0,  999.0,  999.0,  999.0,  999.0,  999.0,  999.0,  999.0,  999.0,  999.0,  999.0
2011/04/17 22:40,    0.1,    0.0,    0.1,    0.3,    0.1,   -0.1,    0.0,    0.1,    0.0,  999.0,    0.0,    0.2,    0.1,    0.1,   -0.0,   -0.0,   -0.0,   -0.0,   -0.0,   -0.1,   -0.1,   -0.0,  999.0,    0.0,    0.0,    0.1,  999.0,  999.0,  999.0,  999.0,  999.0,  999.0,  999.0,  999.0,  999.0,  999.0,  999.0,  999.0,  999.0,  999.0,  999.0,  999.0,  999.0,  999.0,  999.0,  999.0,  999.0,  999.0,  999.0,  999.0,  999.0,  999.0,  999.0,  999.0,  999.0,  999.0,  999.0,  999.0,  999.0,  999.0,  999.0,  999.0,  999.0,  999.0,  999.0,  999.0,  999.0,  999.0,  999.0,   -0.8,   -0.8,   -0.8,   -0.8,   -0.7,   -0.7,   -0.7,   -0.7,   -0.7,   -0.7,   -0.7,   -0.8,   -0.8,   -0.8,   -0.8,   -0.7,   -0.7,   -0.7,  999.0,  999.0,  999.0,  999.0,  999.0,  999.0,  999.0,  999.0,  999.0,  999.0,  999.0
2011/04/17 22:50,    0.3,    0.0,   -0.1,   -0.1,   -0.1,   -0.2,   -0.1,   -0.1,   -0.1,   -0.1,   -0.1,   -0.1,   -0.1,   -0.1,   -0.1,   -0.0,   -0.1,   -0.1,   -0.1,   -0.1,   -0.1,   -0.1,  999.0,   -0.1,  999.0,  999.0,  999.0,  999.0,  999.0,  999.0,  999.0,  999.0,  999.0,    0.4,    0.5,  999.0,  999.0,  999.0,  999.0,  999.0,  999.0,  999.0,  999.0,  999.0,  999.0,  999.0,  999.0,  999.0,  999.0,   -0.1,   -0.3,  999.0,  999.0,  999.0,  999.0,  999.0,  999.0,  999.0,  999.0,  999.0,  999.0,  999.0,  999.0,  999.0,  999.0,  999.0,  999.0,  999.0,   -0.7,   -0.7,   -0.8,   -0.9,   -0.9,   -0.9,   -0.9,   -0.9,   -0.9,   -0.8,   -0.9,   -0.9,   -0.8,   -0.8,   -0.8,   -0.9,   -0.9,  999.0,  999.0,  999.0,  999.0,  999.0,  999.0,  999.0,  999.0,  999.0,  999.0,  999.0,  999.0,  999.0
2011/04/17 23:00,    0.2,    0.3,    0.4,  999.0,    0.1,    0.0,   -0.1,   -0.1,   -0.1,   -0.1,   -0.1,   -0.1,   -0.1,   -0.1,   -0.0,   -0.1,    0.0,   -0.0,   -0.1,   -0.0,    0.1,  999.0,  999.0,    0.0,  999.0,  999.0,  999.0,  999.0,  999.0,  999.0,  999.0,  999.0,  999.0,  999.0,  999.0,  999.0,  999.0,  999.0,  999.0,  999.0,  999.0,  999.0,  999.0,  999.0,  999.0,    0.1,  999.0,  999.0,  999.0,  999.0,   -0.0,  999.0,  999.0,  999.0,  999.0,  999.0,  999.0,  999.0,  999.0,  999.0,  999.0,  999.0,  999.0,  999.0,  999.0,   -0.8,   -0.9,   -1.0,   -1.0,   -1.0,   -1.2,   -1.4,   -1.4,   -1.4,   -1.2,   -1.1,   -1.1,   -1.1,   -1.1,   -1.1,   -1.0,   -1.0,   -0.9,  999.0,  999.0,  999.0,  999.0,  999.0,  999.0,  999.0,  999.0,  999.0,  999.0,  999.0,  999.0,  999.0,  999.0,  999.0
2011/04/17 23:10,  999.0,   -0.2,  999.0,    0.4,   -0.2,   -0.1,   -0.0,    0.0,   -0.0,   -0.0,    0.0,    0.0,   -0.0,   -0.0,   -0.0,   -0.0,   -0.1,   -0.1,   -0.1,   -0.1,   -0.1,  999.0,  999.0,    0.1,  999.0,  999.0,  999.0,  999.0,  999.0,  999.0,  999.0,  999.0,  999.0,  999.0,  999.0,  999.0,  999.0,  999.0,  999.0,  999.0,  999.0,  999.0,  999.0,  999.0,  999.0,  999.0,  999.0,  999.0,  999.0,    0.1,    0.2,  999.0,  999.0,  999.0,  999.0,  999.0,  999.0,  999.0,  999.0,  999.0,  999.0,  999.0,  999.0,  999.0,  999.0,  999.0,  999.0,   -0.9,   -0.9,   -0.7,   -0.7,  999.0,   -0.6,   -0.7,   -0.7,   -0.8,   -0.8,   -0.8,   -0.9,   -0.6,   -0.9,  999.0,  999.0,  999.0,  999.0,  999.0,  999.0,  999.0,  999.0,  999.0,  999.0,  999.0,  999.0,  999.0,  999.0,  999.0,  999.0,  999.0
2011/04/17 23:20,  999.0,   -0.4,   -0.0,   -0.1,   -0.1,   -0.1,   -0.1,   -0.1,   -0.1,   -0.1,    0.2,   -0.0,   -0.0,   -0.0,   -0.0,   -0.1,   -0.0,    0.0,   -0.0,   -0.1,   -0.2,  999.0,  999.0,  999.0,   -0.0,   -0.1,  999.0,  999.0,  999.0,  999.0,  999.0,  999.0,  999.0,  999.0,  999.0,  999.0,  999.0,  999.0,  999.0,  999.0,  999.0,  999.0,  999.0,  999.0,  999.0,  999.0,  999.0,  999.0,  999.0,  999.0,  999.0,  999.0,  999.0,  999.0,  999.0,  999.0,  999.0,  999.0,  999.0,  999.0,  999.0,  999.0,  999.0,  999.0,  999.0,  999.0,  999.0,  999.0,  999.0,  999.0,  999.0,  999.0,  999.0,  999.0,  999.0,  999.0,  999.0,  999.0,  999.0,  999.0,  999.0,  999.0,  999.0,  999.0,  999.0,  999.0,  999.0,  999.0,  999.0,  999.0,  999.0,  999.0,  999.0,  999.0,  999.0,  999.0,  999.0,  999.0
2011/04/17 23:30,  999.0,  999.0,    0.1,    0.3,   -0.0,    0.0,    0.1,    0.0,    0.0,   -0.0,   -0.1,   -0.1,   -0.1,   -0.1,   -0.1,   -0.2,   -0.2,   -0.2,   -0.2,   -0.2,   -0.2,  999.0,  999.0,   -0.1,   -0.1,  999.0,  999.0,  999.0,  999.0,  999.0,  999.0,  999.0,  999.0,  999.0,  999.0,  999.0,  999.0,  999.0,  999.0,  999.0,  999.0,  999.0,  999.0,  999.0,  999.0,  999.0,  999.0,  999.0,  999.0,  999.0,  999.0,  999.0,  999.0,  999.0,  999.0,  999.0,  999.0,  999.0,  999.0,  999.0,  999.0,  999.0,  999.0,  999.0,  999.0,  999.0,  999.0,  999.0,  999.0,  999.0,  999.0,  999.0,  999.0,  999.0,  999.0,  999.0,  999.0,  999.0,  999.0,  999.0,  999.0,  999.0,  999.0,  999.0,  999.0,  999.0,  999.0,  999.0,  999.0,  999.0,  999.0,  999.0,  999.0,  999.0,  999.0,  999.0,  999.0,  999.0
2011/04/17 23:40,    0.1,    0.3,  999.0,    0.1,    0.1,   -0.0,   -0.0,   -0.0,    0.0,    0.0,    0.0,    0.0,   -0.0,   -0.1,   -0.1,   -0.1,   -0.1,   -0.1,   -0.1,   -0.2,   -0.1,   -0.1,   -0.2,   -0.1,    0.0,   -0.2,  999.0,  999.0,   -0.5,  999.0,  999.0,  999.0,  999.0,  999.0,  999.0,  999.0,  999.0,  999.0,  999.0,  999.0,  999.0,  999.0,  999.0,  999.0,  999.0,  999.0,  999.0,  999.0,  999.0,  999.0,  999.0,  999.0,  999.0,  999.0,  999.0,  999.0,  999.0,  999.0,  999.0,  999.0,  999.0,    0.1,  999.0,  999.0,  999.0,  999.0,  999.0,  999.0,  999.0,  999.0,  999.0,  999.0,  999.0,  999.0,  999.0,  999.0,  999.0,  999.0,  999.0,  999.0,  999.0,  999.0,  999.0,  999.0,  999.0,  999.0,  999.0,  999.0,  999.0,  999.0,  999.0,  999.0,  999.0,  999.0,  999.0,  999.0,  999.0,  999.0
2011/04/17 23:50,   -0.0,    0.4,  999.0,   -0.1,    0.0,    0.1,    0.1,    0.1,    0.0,    0.0,    0.1,    0.1,   -0.0,    0.0,    0.2,   -0.1,   -0.1,   -0.1,   -0.1,   -0.1,   -0.0,  999.0,    0.1,    0.1,    0.0,  999.0,  999.0,   -0.2,  999.0,  999.0,  999.0,  999.0,  999.0,  999.0,  999.0,  999.0,  999.0,  999.0,  999.0,  999.0,  999.0,  999.0,  999.0,  999.0,  999.0,  999.0,  999.0,  999.0,  999.0,  999.0,  999.0,  999.0,  999.0,  999.0,  999.0,  999.0,  999.0,  999.0,  999.0,  999.0,  999.0,  999.0,  999.0,  999.0,  999.0,  999.0,  999.0,  999.0,  999.0,  999.0,  999.0,  999.0,  999.0,  999.0,  999.0,  999.0,  999.0,  999.0,  999.0,  999.0,  999.0,  999.0,  999.0,  999.0,  999.0,  999.0,  999.0,  999.0,  999.0,  999.0,  999.0,  999.0,  999.0,  999.0,  999.0,  999.0,  999.0,  999.0
